     2.10           OBSERVATION DATA    G (GPS)             RINEX VERSION / TYPE
teqc 2002Mar14 Lou Estey 20020315 16:12:05UTC               PGM / RUN BY / DATE
Solaris 2.7|Ultra 2|cc SC5.0|=+-|*Sparc                     COMMENT
BIT 2 OF LLI FLAGS DATA COLLECTED UNDER A/S CONDITION       COMMENT
-Unknown-                                                   MARKER NAME
DOUG                                                        MARKER NUMBER
-Unknown- -Unknown-                                         OBSERVER / AGENCY
-Unknown- ASHTECH -Unknown-                                 REC # / TYPE / VERS
-Unknown- -Unknown-                                         ANT # / TYPE
 -2690727.1988 -4262935.2384  3894510.5739                  APPROX POSITION XYZ
        0.0000        0.0000        0.0000                  ANTENNA: DELTA H/E/N
     1     1                                                WAVELENGTH FACT L1/2
     5    L1    L2    C1    P2    P1                        # / TYPES OF OBSERV
    15.0000                                                 INTERVAL
Forced Modulo Decimation to 15 seconds                      COMMENT
SNR is mapped to RINEX snr flag value [1-9]                 COMMENT
L1: 1 -> 1; 90 -> 5; 210 -> 9                               COMMENT
L2: 1 -> 1; 150 -> 5; 250 -> 9                              COMMENT
  1997     6    10     3     0   15.0000000     GPS         TIME OF FIRST OBS
                                                            END OF HEADER
 97  6 10  3  0 15.0000000  0  8G21G17G23G25G 3G31G 9G 1
   -840854.53048   -650626.51947  20975122.3734   20975127.2244   20975122.0354
   2061522.93944   1596976.81643  25099853.5774   25099859.7534   25099852.4024
    643331.20544    498931.33943  23361490.0254   23361497.7394   23361489.4704
  -4957346.49548  -3840524.45147  24690909.8524   24690914.6074   24690909.7484
   1032745.22844    801618.92543  22548539.5644   22548544.0154   22548539.3234
   -956212.41448   -738889.45647  22200243.8324   22200247.4754   22200243.3524
     80465.99944     75777.96643  24560625.0734   24560629.5974   24560624.9874
  -2134784.03848  -1485169.90047  20345427.7304   20345431.5314   20345427.3644
 97  6 10  3  0 30.0000000  0  8G21G17G23G25G 3G31G 9G 1
   -850926.92848   -658475.13747  20973205.5854   20973210.2654   20973205.2544
   2092276.42944   1620940.54243  25105705.6294   25105711.7734   25105704.6074
    653275.48344    506680.11543  23363381.8514   23363389.0144   23363381.2694
  -5029367.90048  -3896644.96547  24677204.7674   24677209.2834   24677204.5124
   1050608.44644    815538.30643  22551938.7764   22551943.7464   22551938.6484
   -964899.33848   -745658.48947  22198590.8684   22198594.8414   22198590.2654
     85411.82644     79631.87343  24561566.0614   24561569.2674   24561565.9974
  -2160609.22648  -1505293.41747  20340513.3614   20340517.1684   20340512.9924
 97  6 10  3  0 45.0000000  0  8G21G17G23G25G 3G31G 9G 1
   -860952.74348   -666287.46347  20971297.6524   20971302.6754   20971297.3504
   2123053.70144   1644922.81243  25111562.1604   25111567.7724   25111561.2304
    663230.37644    514437.19343  23365275.5884   23365283.7654   23365275.1284
  -5101405.12248  -3952777.83747  24663496.4054   24663500.9414   24663496.2574
   1068543.85444    829513.94843  22555351.7784   22555356.7794   22555351.6984
   -973451.33548   -752322.39147  22196963.3824   22196967.6944   22196962.8374
     90470.96244     83574.12343  24562528.8264   24562533.3354   24562528.6444
  -2186312.02548  -1525321.57147  20335622.2804   20335626.1184   20335621.9174
 97  6 10  3  1  0.0000000  0  8G21G17G23G25G 3G31G 9G 1
   -870937.33648   -674067.65947  20969397.6604   20969402.4824   20969397.3534
   2153854.91744   1668923.76143  25117423.2254   25117429.0114   25117422.4954
    673193.32544    522200.52043  23367170.9674   23367177.1044   23367170.5904
  -5173454.86648  -4008920.44047  24649785.6174   24649790.2674   24649785.6714
   1086552.76744    843546.86143  22558778.7874   22558783.8234   22558778.6994
   -981868.55048   -758881.27547  22195361.5104   22195365.4704   22195361.0874
     95641.95044     87603.51443  24563513.2064   24563515.0934   24563512.7314
  -2211896.23348  -1545257.31647  20330753.7654   20330757.8544   20330753.4184
 97  6 10  3  1 15.0000000  0  7G21G17G23G25G 3G31G 1
   -880868.80248   -681806.47047  20967507.8344   20967512.6584   20967507.4714
   2184691.83444   1692952.48943  25123290.9834   25123297.4324   25123290.2754
    683175.00744    529978.43243  23369070.2634   23369076.1184   23369069.7684
  -5245506.00248  -4065064.14347  24636074.7394   24636079.7494   24636074.8074
   1104646.96744    857646.22343  22562222.1194   22562227.1974   22562221.9354
   -990141.95148   -765328.10747  22193787.1334   22193790.9104   22193786.7334
  -2237348.90148  -1565090.55947  20325910.3074   20325914.3084   20325909.9274
 97  6 10  3  1 30.0000000  0  7G21G17G23G25G 3G31G 1
   -890752.15448   -689507.78747  20965627.1704   20965631.4144   20965626.7744
   2215558.94644   1717004.74343  25129164.5064   25129170.8854   25129163.9754
    693168.59744    537765.63643  23370971.9534   23370979.7464   23370971.4954
  -5317564.22348  -4121213.35847  24622362.5754   24622367.3464   24622362.5144
   1122819.24744    871806.42043  22565680.2374   22565685.3114   22565680.0994
   -998280.26948   -771669.66747  22192238.5714   22192242.1684   22192238.0724
  -2262678.44348  -1584827.86247  20321090.2284   20321094.5394   20321089.8754
 97  6 10  3  1 45.0000000  0  7G21G17G23G25G 3G31G 1
   -900582.84548   -697168.06947  20963756.5774   20963760.4964   20963756.1184
   2246457.45944   1741081.43443  25135043.8614   25135051.6114   25135043.3834
    703176.13544    545563.70243  23372876.5334   23372883.5564   23372876.0034
  -5389627.11748  -4177366.22047  24608649.4774   24608655.2194   24608649.3214
   1141073.31444    886030.37143  22569153.9454   22569158.5054   22569153.7934
  -1006281.48648   -777904.39947  22190716.0784   22190720.3264   22190715.5044
  -2287884.97248  -1604469.30947  20316293.5944   20316297.6404   20316293.2174
 97  6 10  3  2  0.0000000  0  7G21G17G23G25G 3G31G 1
   -910360.97348   -704787.40147  20961895.9624   20961899.4284   20961895.4794
   2277388.06944   1765183.14443  25140929.2244   25140936.1514   25140929.0244
    713198.41444    553373.25443  23374784.0244   23374790.1064   23374783.3534
  -5461693.75648  -4233522.00747  24594935.5094   24594939.8654   24594935.4514
   1159407.10244    900316.42443  22572642.8004   22572647.4734   22572642.5784
  -1014140.45748   -784028.28147  22189220.5574   22189224.9834   22189219.9674
  -2312968.01348  -1624014.53347  20311520.4594   20311524.5284   20311520.0674
 97  6 10  3  2 15.0000000  0  7G21G17G23G25G 3G31G 1
   -920094.19248   -712371.73847  20960043.9124   20960047.1894   20960043.3874
   2308347.58244   1789307.47043  25146820.2024   25146828.4924   25146820.2424
    723228.33944    561188.76143  23376692.8654   23376698.3464   23376692.2774
  -5533769.03048  -4289684.49747  24581219.9334   24581225.6894   24581219.9384
   1177818.19744    914662.72643  22576146.2704   22576151.3374   22576146.1054
  -1021862.71348   -790045.63747  22187750.9634   22187754.6474   22187750.4544
  -2337931.13648  -1643466.31847  20306770.1494   20306774.1944   20306769.7404
 97  6 10  3  2 30.0000000  0  7G21G17G23G25G 3G31G 1
   -929776.38248   -719916.30647  20958201.5354   20958205.1034   20958200.9934
   2339342.31244   1813459.20143  25152717.6214   25152726.5974   25152717.9974
    733274.27544    569016.75243  23378604.8764   23378608.2744   23378604.2564
  -5605844.32648  -4345847.01747  24567504.4394   24567508.8824   24567504.4724
   1196314.72544    929075.61043  22579666.0274   22579670.5394   22579665.8864
  -1029444.53648   -795953.56047  22186308.1094   22186312.3914   22186307.6864
  -2362766.64648  -1662818.65747  20302044.1204   20302048.1084   20302043.6844
 97  6 10  3  2 45.0000000  0  7G21G17G23G25G 3G31G 1
   -939417.37448   -727428.77547  20956366.9694   20956370.6174   20956366.4304
   2370363.55744   1837631.58543  25158619.9694   25158629.2694   25158620.5464
    743328.99744    576851.57343  23380518.4554   23380520.7664   23380517.7894
  -5677928.15848  -4402016.20647  24553787.3804   24553791.9904   24553787.3334
   1214889.68844    943549.57643  22583200.8374   22583204.8684   22583200.6364
  -1036896.25648   -801760.11647  22184890.1494   22184894.2564   22184889.7204
  -2387483.81948  -1682078.79247  20297340.6134   20297344.6494   20297340.1554
 97  6 10  3  3  0.0000000  0  7G21G17G23G25G 3G31G 1
   -949012.57648   -734905.55947  20954541.1074   20954544.9064   20954540.5434
   2401412.91854   1861825.88343  25164527.9184   25164536.5454   25164528.5384
    753397.96044    584697.50743  23382434.6904   23382437.0414   23382434.0814
  -5750018.97248  -4458190.80247  24540069.0704   24540074.0204   24540068.9414
   1233543.12944    958084.71243  22586750.5224   22586754.8974   22586750.3324
  -1044216.99248   -807464.58647  22183497.1464   22183501.6554   22183496.6594
  -2412082.40648  -1701246.51847  20292659.6694   20292663.5584   20292659.1814
 97  6 10  3  3 15.0000000  0  7G21G17G23G25G 3G31G 1
   -958550.67148   -742337.84747  20952726.0434   20952729.8734   20952725.5324
   2432492.33244   1886043.53443  25170441.3334   25170453.3444   25170442.2364
    763488.35744    592560.13743  23384354.9964   23384358.2224   23384354.3854
  -5822115.38748  -4514369.79747  24526349.6594   24526354.1024   24526349.3734
   1252276.65544    972682.25643  22590315.3954   22590320.2404   22590315.1774
  -1051403.47848   -813064.46147  22182129.6284   22182134.0554   22182129.1204
  -2436554.56148  -1720315.72647  20288002.7474   20288006.8204   20288002.2704
 97  6 10  3  3 30.0000000  0  7G21G17G23G25G 3G31G 1
   -968038.70848   -749731.11947  20950920.5444   20950924.4694   20950919.9984
   2463592.56244   1910277.40043  25176359.3224   25176371.8724   25176360.4894
    773593.02144    600433.87243  23386277.8864   23386280.7774   23386277.2894
  -5894227.98948  -4570561.39147  24512627.1244   24512632.1104   24512626.7654
   1271080.11244    987334.29243  22593893.5354   22593897.9504   22593893.3264
  -1058467.15048   -818568.62347  22180785.4284   22180789.9394   22180784.9584
  -2460908.58248  -1739292.88047  20283368.3394   20283372.3264   20283367.8534
 97  6 10  3  3 45.0000000  0  7G21G17G23G25G 3G31G 1
   -977474.39948   -757083.60447  20949124.9754   20949128.7804   20949124.4134
   2494715.96444   1934529.35943  25182281.8714   25182295.9794   25182283.1684
    783716.49744    608322.28043  23388204.2654   23388208.4614   23388203.7534
  -5966352.48548  -4626762.26247  24498902.1974   24498906.5584   24498901.8984
   1289956.62844   1002043.25043  22597485.5744   22597490.9454   22597485.3714
  -1065403.18448   -823973.32747  22179465.5234   22179470.2514   22179465.0634
  -2485139.76948  -1758174.32447  20278757.2974   20278761.2494   20278756.8234
 97  6 10  3  4  0.0000000  0  7G21G17G23G25G 3G31G 1
   -986856.83548   -764394.60047  20947339.4454   20947343.2814   20947338.9454
   2525865.65844   1958801.82143  25188209.4764   25188222.7154   25188211.0614
    793861.02844    616227.09443  23390134.8814   23390138.0604   23390134.3364
  -6038488.92648  -4682972.42147  24485175.0804   24485179.4464   24485174.7354
   1308905.03744   1016808.20743  22601091.3354   22601096.3014   22601091.1484
  -1072211.82948   -829278.79047  22178169.8954   22178173.9044   22178169.4784
  -2509243.00348  -1776956.06847  20274170.6504   20274174.4654   20274170.1614
 97  6 10  3  4 15.0000000  0  7G21G17G23G25G 3G31G 1
   -996190.15648   -771667.31447  20945563.3094   20945567.5744   20945562.8344
   2557040.86644   1983094.15643  25194142.0634   25194155.3874   25194143.6934
    804019.90944    624143.09543  23392068.1494   23392073.4424   23392067.7044
  -6110641.54948  -4739195.20447  24471444.9014   24471449.8594   24471444.4494
   1327921.34944   1031626.09743  22604710.0814   22604714.5974   22604709.8364
  -1078900.16548   -834490.48247  22176897.2114   22176902.0724   22176896.7684
  -2533221.26948  -1795640.42747  20269607.7724   20269611.4684   20269607.2834
 97  6 10  3  4 30.0000000  0  7G21G17G23G25G 3G31G 1
  -1005473.32948   -778900.95547  20943796.8014   20943800.6834   20943796.2684
   2588244.99444   2007409.00043  25200080.2134   25200094.7674   25200081.8474
    814196.50244    632072.90843  23394004.8874   23394009.6244   23394004.4254
  -6182808.37448  -4795429.06147  24457711.9194   24457715.8534   24457711.5274
   1347006.94444   1046497.96343  22608341.9314   22608346.2084   22608341.7014
  -1085468.56248   -839608.73047  22175647.2684   22175651.2254   22175646.9324
  -2557073.68248  -1814226.71947  20265068.8404   20265072.5664   20265068.3274
 97  6 10  3  4 44.9990000  0  7G21G17G23G25G 3G31G 1
  -1014713.64048   -786101.20147  20942038.3834   20942042.0914   20942037.8674
   2619464.51744   2031735.87143  25206021.3934   25206034.0404   25206022.9474
    824380.22244    640008.26243  23395942.9594   23395948.2154   23395942.3924
  -6254997.59648  -4851680.35447  24443974.5324   24443978.7314   24443974.3304
   1366145.36144   1061411.00143  22611983.9074   22611988.4274   22611983.6024
  -1091924.96248   -844639.69447  22174418.7324   22174422.7524   22174418.3254
  -2580809.42548  -1832722.10147  20260552.0894   20260555.8344   20260551.5704
 97  6 10  3  4 59.9990000  0  7G21G17G23G25G 3G31G 1
  -1023901.41948   -793260.51247  20940289.9964   20940293.7634   20940289.4994
   2650718.36144   2056089.51243  25211969.2534   25211981.9414   25211970.4534
    834585.38644    647960.32943  23397884.9294   23397890.9164   23397884.4334
  -6327208.77048  -4907948.77047  24430233.1684   24430237.4254   24430232.9674
   1385347.65344   1076373.81243  22615638.0304   22615642.5714   22615637.6484
  -1098258.29748   -849574.76947  22173213.4384   22173217.7304   22173213.1214
  -2604419.93248  -1851119.89747  20256059.1574   20256062.8614   20256058.6254
 97  6 10  3  5 14.9990000  0  7G21G17G23G25G 3G31G 1
  -1033039.43848   -800381.04847  20938551.1654   20938555.0904   20938550.6504
   2681999.65744   2080464.50743  25217922.6164   25217934.5954   25217923.2804
    844810.51344    655927.95843  23399830.8284   23399836.0534   23399830.3284
  -6399439.62848  -4964232.50847  24416488.0574   24416492.3404   24416487.8264
   1404608.09244   1091381.92443  22619303.1944   22619307.6254   22619302.8184
  -1104469.56348   -854414.72047  22172031.3574   22172035.9584   22172031.0914
  -2627904.53248  -1869419.58447  20251590.2004   20251593.9164   20251589.6734
 97  6 10  3  5 29.9990000  0  7G21G17G23G25G 3G31G 1
  -1042125.83348   -807461.36647  20936822.1694   20936826.0804   20936821.6004
   2713315.86144   2104866.70443  25223882.5924   25223894.2374   25223882.8634
    855061.81544    663915.98243  23401781.4844   23401787.5144   23401780.9624
  -6471683.91548  -5020526.72947  24402740.3774   24402744.5644   24402740.2024
   1423933.67244   1106440.79443  22622980.7544   22622985.2574   22622980.3814
  -1110551.48848   -859153.89547  22170873.9404   22170878.7334   22170873.7014
  -2651257.43648  -1887616.65347  20247146.2874   20247150.1254   20247145.7794
 97  6 10  3  5 44.9990000  0  7G21G17G23G25G 3G31G 1
  -1051168.47648   -814507.58747  20935101.4474   20935105.1414   20935100.9014
   2744664.72244   2129294.32443  25229848.4974   25229859.6884   25229848.5754
    865335.10644    671921.13643  23403736.1474   23403742.7834   23403735.7724
  -6543942.86248  -5076832.35047  24388989.9194   24388994.5304   24388989.7394
   1443319.78844   1121546.85643  22626669.8124   22626673.6534   22626669.4214
  -1116507.12348   -863794.66047  22169740.6694   22169745.9504   22169740.3624
  -2674485.46748  -1905716.41647  20242726.1594   20242729.9714   20242725.6414
 97  6 10  3  5 59.9990000  0  7G21G17G23G25G 3G31G 1
  -1060156.23448   -821511.04247  20933391.1784   20933394.9234   20933390.6624
   2776054.15044   2153753.56743  25235822.0294   25235831.0334   25235821.8754
    875635.90744    679947.73443  23405696.1444   23405703.3684   23405695.7894
  -6616203.88948  -5133139.62547  24375238.9784   24375244.4504   24375238.8914
   1462773.33244   1136705.43843  22630371.6924   22630376.0124   22630371.3004
  -1122326.16648   -868328.99947  22168633.4004   22168638.1474   22168633.0604
  -2697581.68048  -1923713.46447  20238331.0754   20238334.9894   20238330.5784
 97  6 10  3  6 14.9990000  0  7G21G17G23G25G 3G31G 1
  -1069089.69548   -828472.18347  20931691.2564   20931694.7814   20931690.7334
   2807481.36244   2178242.25843  25241802.5394   25241812.2574   25241802.2594
    885960.99344    687993.25443  23407660.7144   23407667.7694   23407660.3254
  -6688468.27748  -5189449.49047  24361487.4714   24361492.2194   24361487.4084
   1482293.50444   1151915.94643  22634086.2104   22634090.8714   22634085.8464
  -1128011.58148   -872759.20347  22167551.5484   22167556.1924   22167551.1624
  -2720550.52548  -1941611.26147  20233960.2794   20233964.0734   20233959.7714
 97  6 10  3  6 29.9990000  0  7G21G17G23G25G 3G31G 1
  -1077971.33848   -835392.94747  20930001.1474   20930004.8164   20930000.6184
   2838940.36644   2202755.73543  25247789.1304   25247797.8574   25247788.8134
    896308.80644    696056.48043  23409629.5434   23409636.8314   23409629.1984
  -6760734.80048  -5245761.02347  24347735.5884   24347741.0084   24347735.5204
   1501879.58344   1167177.81343  22637813.2534   22637818.2494   22637813.0074
  -1133563.51548   -877085.39947  22166495.1224   22166499.6174   22166494.6334
  -2743394.28248  -1959411.59447  20229613.2234   20229617.0844   20229612.7444
 97  6 10  3  6 44.9990000  0  7G21G17G23G25G 3G31G 1
  -1086796.48248   -842269.68247  20928321.7404   20928325.5664   20928321.2344
   2870428.17444   2227291.65743  25253781.2054   25253789.2334   25253780.8124
    906680.42244    704138.27643  23411603.0574   23411610.4014   23411602.6344
  -6833001.66348  -5302072.83547  24333983.5324   24333988.2394   24333983.5464
   1521532.06844   1182491.42643  22641553.0464   22641557.9514   22641552.8264
  -1138980.20548   -881306.21147  22165464.3624   22165468.2854   22165463.8594
  -2766110.34448  -1977112.41547  20225290.4604   20225294.3684   20225290.0034
 97  6 10  3  6 59.9990000  0  7G21G17G23G25G 3G31G 1
  -1095567.54748   -849104.27647  20926652.6054   20926656.6734   20926652.1074
   2901940.19044   2251846.44543  25259777.8054   25259785.4604   25259777.2684
    917068.23144    712232.68143  23413579.4354   23413587.9584   23413578.9484
  -6905270.10948  -5358385.87847  24320231.2584   24320236.1664   24320231.3154
   1541248.04544   1197854.51643  22645304.9394   22645309.5574   22645304.6724
  -1144269.06548   -885427.39647  22164457.7984   22164461.7104   22164457.3794
  -2788705.00848  -1994718.64547  20220990.8294   20220994.9164   20220990.3504
 97  6 10  3  7 14.9990000  0  7G21G17G23G25G 3G31G 1
  -1104284.37848   -855896.60847  20924993.7604   20924997.8854   20924993.2674
   2933472.60544   2276417.11343  25265778.2984   25265784.0834   25265777.8374
    927471.56244    720339.18243  23415558.5374   23415565.6174   23415558.1164
  -6977537.06848  -5414697.76147  24306479.3084   24306484.2404   24306479.2754
   1561030.61044   1213269.48443  22649069.4424   22649073.5034   22649069.2264
  -1149430.67348   -889449.44947  22163475.5324   22163479.8154   22163475.1394
  -2811179.25448  -2012231.03847  20216714.0704   20216718.0474   20216713.6284
 97  6 10  3  7 29.9990000  0  7G21G17G23G25G 3G31G 1
  -1112953.04948   -862651.42247  20923344.0074   20923348.2054   20923343.5644
   2965013.88744   2300994.73243  25271780.3764   25271786.8894   25271779.9744
    937878.68244    728448.62443  23417538.1924   23417545.0874   23417537.8974
  -7049812.38448  -5471016.14747  24292725.8334   24292730.4744   24292725.7644
   1580871.66844   1228730.04043  22652845.1174   22652848.9154   22652844.8764
  -1154474.45348   -893379.67747  22162515.7984   22162519.7364   22162515.3494
  -2833541.17048  -2029655.90647  20212458.7254   20212462.7414   20212458.2794
 97  6 10  3  7 44.9990000  0  7G21G17G23G25G 3G31G 1
  -1121557.87248   -869356.46947  20921706.4634   20921710.8934   20921706.0724
   2996579.79444   2325591.50643  25277787.2964   25277793.7324   25277786.7774
    948299.19044    736568.54043  23419520.4024   23419528.1204   23419520.1544
  -7122080.30348  -5527328.78647  24278973.7234   24278979.4624   24278973.6204
   1600784.25044   1244246.31343  22656634.3434   22656638.8254   22656634.1434
  -1159386.63948   -897207.36547  22161581.1894   22161585.2274   22161580.6274
  -2855778.60848  -2046983.77247  20208227.0464   20208231.1114   20208226.5954
 97  6 10  3  7 59.9990000  0  7G21G17G23G25G 3G31G 1
  -1130096.77248   -876010.15747  20920081.5314   20920086.3864   20920081.1094
   3028170.36944   2350207.48843  25283799.1864   25283806.2854   25283798.3184
    958733.34944    744699.04843  23421505.3944   23421514.4754   23421505.2564
  -7194340.61648  -5583635.47847  24265223.1514   24265228.4244   24265222.9014
   1620769.24844   1259819.02143  22660437.4194   22660442.1684   22660437.2234
  -1164166.31348   -900931.78047  22160671.7084   22160675.8884   22160671.1184
  -2877889.33848  -2064212.90947  20204019.4804   20204023.3874   20204019.0374
 97  6 10  3  8 14.9990000  0  8G15G21G17G23G25G 3G31G 1
   -319611.00248   -224933.21047  23072153.3984   23072159.7904
  -1138576.24548   -882617.54247  20918467.8934   20918472.5414   20918467.4874
   3059779.50644   2374837.98643  25289814.8454   25289820.7834   25289813.7104
    969178.41044    752838.06443  23423492.9854   23423502.1934   23423492.7324
  -7266599.63248  -5639941.18247  24251472.6844   24251477.8264   24251472.4304
   1640823.52344   1275445.70143  22664253.6314   22664258.0114   22664253.4504
  -1168816.67948   -904555.45747  22159786.7794   22159791.0974   22159786.1824
  -2899877.90048  -2081346.85047  20199835.1514   20199839.1344   20199834.7354
 97  6 10  3  8 29.9990000  0  8G15G21G17G23G25G 3G31G 1
   -392568.50848   -281783.21547  23058269.5954   23058275.1284   23058270.5544
  -1147002.11848   -889183.15947  20916864.5514   20916868.8544   20916864.1244
   3091403.82844   2399480.30443  25295833.5944   25295838.7644   25295831.9954
    979634.39344    760985.56243  23425482.8884   23425492.7024   23425482.5044
  -7338863.25748  -5696250.44547  24237721.2704   24237726.9124   24237721.1014
   1660943.79444   1291123.80243  22668082.4164   22668087.6604   22668082.2064
  -1173341.26648   -908081.10747  22158925.7344   22158929.4224   22158925.1874
  -2921744.70448  -2098385.91247  20195674.0344   20195677.9004   20195673.6304
 97  6 10  3  8 44.9990000  0  8G15G21G17G23G25G 3G31G 1
   -465485.82748   -338601.88747  23044395.7524   23044399.7514   23044395.0064
  -1155360.99148   -895696.56947  20915273.9624   20915278.1254   20915273.5104
   3123055.74344   2424144.16843  25301857.5934   25301862.5764   25301855.2464
    990113.82544    769151.35743  23427477.5414   23427486.5754   23427477.0654
  -7411120.63348  -5752554.86247  24223971.1024   24223976.2554   24223971.0304
   1681139.80044   1306860.92143  22671925.5724   22671929.0394   22671925.3414
  -1177727.64648   -911499.07347  22158090.9764   22158094.3874   22158090.4904
  -2943479.72748  -2115322.29247  20191538.0224   20191541.6684   20191537.6014
 97  6 10  3  8 59.9990000  0  8G15G21G17G23G25G 3G31G 1
   -538367.26448   -395392.60947  23030525.5304   23030531.4164   23030525.7144
  -1163660.15648   -902163.45547  20913694.7534   20913698.5954   20913694.2984
   3154729.79444   2448825.25743  25307885.5844   25307890.6884   25307883.2584
   1000613.06644    777332.57743  23429476.0614   23429484.8234   23429475.4794
  -7483380.42348  -5808861.15047  24210220.5494   24210226.5424   24210220.4384
   1701406.65244   1322653.25643  22675782.2334   22675786.3004   22675781.9974
  -1181982.30648   -914814.40547  22157281.3434   22157285.0294   22157280.8794
  -2965089.74648  -2132161.26147  20187425.7834   20187429.3824   20187425.3784
 97  6 10  3  9 14.9990000  0  8G15G21G17G23G25G 3G31G 1
   -611214.17148   -452156.42447  23016663.2314   23016669.0024   23016663.3444
  -1171904.93748   -908587.96347  20912125.8384   20912129.6414   20912125.4114
   3186425.34244   2473523.07043  25313917.4544   25313923.4554   25313915.1654
   1011133.20544    785530.07143  23431478.5324   23431485.3034   23431477.9064
  -7555646.61448  -5865172.42947  24196468.7654   24196474.5354   24196468.6154
   1721741.29644   1338498.40343  22679651.8234   22679657.2494   22679651.5504
  -1186103.33148   -918025.60647  22156497.1784   22156501.3064   22156496.6664
  -2986575.43648  -2148903.35547  20183337.2394   20183340.6074   20183336.8154
 97  6 10  3  9 29.9990000  0  8G15G21G17G23G25G 3G31G 1
   -684031.38948   -508897.10947  23002806.3894   23002811.4474   23002806.5434
  -1180100.54148   -914974.15247  20910566.2844   20910569.9674   20910565.8924
   3218136.29544   2498232.84543  25319952.0034   25319949.7894
   1021672.38544    793742.40243  23433484.6754   23433491.3984   23433483.9744
  -7627927.51948  -5921495.17247  24182714.1214   24182718.8084   24182714.0474
   1742137.17644   1354391.27443  22683533.0844   22683537.0884   22683532.7794
  -1190091.36248   -921133.16847  22155738.2784   22155741.9604   22155737.7244
  -3007938.02248  -2165549.52247  20179272.0904   20179275.4374   20179271.6694
 97  6 10  3  9 44.9990000  0  8G15G21G17G23G25G 3G31G 1
   -756824.51648   -565619.01647  22988954.0514   22988959.0034   22988954.3854
  -1188255.34448   -921328.55047  20909014.5294   20909018.0754   20909014.1454
   3249860.95844   2522953.27443  25325988.9724   25325987.3794
   1032225.40344    801965.51343  23435493.3204   23435498.8894   23435492.7174
  -7700228.50948  -5977833.56447  24168955.7004   24168961.0494   24168955.5604
   1762587.58244   1370326.62743  22687424.6194   22687430.1014   22687424.3724
  -1193952.56948   -924141.90647  22155003.4644   22155008.0544   22155002.9264
  -3029184.60548  -2182105.29547  20175229.0244   20175232.5384   20175228.5594
 97  6 10  3  9 59.9990000  0  8G15G21G17G23G25G 3G31G 1
   -829582.02248   -622313.17947  22975108.7434   22975114.3694   22975109.1144
  -1196359.70748   -927643.64047  20907472.3674   20907476.2614   20907471.9854
   3281609.09754   2547692.09143  25332030.2864   25332029.4834
   1042805.59144    810209.81543  23437507.1204   23437512.7824   23437506.5784
  -7772538.20148  -6034178.74047  24155195.6444   24155200.9044   24155195.4814
   1783104.92644   1386314.13243  22691328.9644   22691334.0584   22691328.7004
  -1197676.35548   -927043.56847  22154294.6454   22154299.7094   22154294.2994
  -3050305.68048  -2198563.27747  20171209.7684   20171213.2684   20171209.3314
 97  6 10  3 10 14.9990000  0  8G15G21G17G23G25G 3G31G 1
   -902295.44448   -678972.98047  22961271.9454   22961276.4014   22961272.1934
  -1204407.82048   -933914.90147  20905940.9324   20905944.5624   20905940.4794
   3313386.61144   2572453.77843  25338077.0954   25338075.9994
   1053422.30044    818482.54543  23439527.7984   23439532.8864   23439527.3334
  -7844850.76448  -6090526.16847  24141434.9954   24141440.5334   24141434.8634
   1803696.13144   1402359.20643  22695247.3784   22695252.4544   22695247.0934
  -1201257.15848   -929833.82147  22153613.2944   22153618.3324   22153612.9194
  -3071292.44248  -2214916.59947  20167216.0614   20167219.3364   20167215.6484
 97  6 10  3 10 29.9990000  0  8G15G21G17G23G25G 3G31G 1
   -974981.26148   -735611.27247  22947440.2874   22947444.6204   22947440.4794
  -1212414.53048   -940153.88947  20904417.2804   20904421.3424   20904416.8374
   3345176.73344   2597225.23743  25344126.4824   25344125.9154
   1064057.93344    826770.04943  23441552.1164   23441556.7284   23441551.6494
  -7917181.16048  -6146887.45247  24127671.0004   24127674.8724   24127670.8354
   1824341.99744   1418446.87243  22699176.1614   22699181.0374   22699175.8814
  -1204711.45648   -932525.49947  22152956.1464   22152960.5034   22152955.6514
  -3092158.42048  -2231175.79447  20163245.3384   20163248.7404   20163244.9354
 97  6 10  3 10 44.9990000  0  8G15G21G17G23G25G 3G31G 1
  -1047639.47948   -792228.04747  22933613.9034   22933618.4944   22933614.0644
  -1220377.95748   -946359.15347  20902901.9194   20902905.7714   20902901.4274
   3376978.85854   2622006.08943  25350178.1284
   1074708.39044    835069.08443  23443579.1374   23443583.8764   23443578.7094
  -7989528.46248  -6203261.92947  24113903.8124   24113908.7844   24113903.6694
   1845041.47544   1434576.31143  22703115.2074   22703120.2794   22703114.8714
  -1208042.66848   -935121.25647  22152322.3594   22152326.3034   22152321.7984
  -3112904.60648  -2247341.65647  20159297.4194   20159301.1044   20159297.0264
 97  6 10  3 10 59.9990000  0  7G15G21G23G25G 3G31G 1
  -1120267.47748   -848821.29247  22919793.3344   22919797.7554   22919793.3884
  -1228296.62048   -952529.54647  20901394.9874   20901398.9814   20901394.4864
   1085374.25844    843380.13443  23445609.1204   23445613.0234   23445608.7074
  -8061889.25548  -6259646.92747  24100133.9864   24100138.1674   24100133.8024
   1865797.63644   1450749.91643  22707064.9164   22707069.4594   22707064.6524
  -1211250.60648   -937620.96347  22151711.9104   22151716.9134   22151711.3514
  -3133527.67748  -2263411.57847  20155372.9534   20155376.7594   20155372.5414
 97  6 10  3 11 14.9990000  0  7G15G21G23G25G 3G31G 1
  -1192850.09648   -905379.16347  22905981.4174   22905984.8564   22905981.3754
  -1236155.11148   -958653.04247  20899899.4564   20899903.8404   20899899.0024
   1096069.52244    851714.07743  23447644.6034   23447647.8074   23447644.2374
  -8134245.84948  -6316028.65547  24086364.8754   24086369.1374   24086364.8374
   1886625.75644   1466979.61243  22711028.3914   22711033.2344   22711028.0954
  -1214319.37048   -940012.22147  22151127.8424   22151132.1454   22151127.3494
  -3154012.14348  -2279373.49647  20151474.8914   20151478.6664   20151474.4434
 97  6 10  3 11 29.9990000  0  7G15G21G23G25G 3G31G 1
  -1265399.67248   -961911.30347  22892175.8064   22892179.3134   22892175.7044
  -1243965.13348   -964738.77147  20898413.1954   20898417.2104   20898412.7804
   1106779.82744    860059.75643  23449682.9334   23449685.3134   23449682.6134
  -8206608.26248  -6372414.91947  24072594.7294   24072598.9804   24072594.6794
   1907512.29244   1483254.82243  22715003.0174   22715008.0244   22715002.6494
  -1217261.49548   -942304.80947  22150567.8944   22150572.5444   22150567.4944
  -3174371.45648  -2295237.89247  20147600.6064   20147604.5114   20147600.1544
 97  6 10  3 11 44.9990000  0  7G15G21G23G25G 3G31G 1
  -1337920.84448  -1018421.30247  22878375.6184   22878379.5164   22878375.4554
  -1251733.08348   -970791.71747  20896935.0244   20896939.2634   20896934.5914
   1117499.08944    868412.43043  23451722.9614   23451725.3134   23451722.6704
  -8278979.21748  -6428807.83347  24058822.9874   24058827.6434   24058822.8174
   1928453.12144   1499572.34543  22718987.9704   22718994.2994   22718987.5484
  -1220089.13848   -944508.17247  22150029.8994   22150034.5774   22150029.4594
  -3194614.62648  -2311011.79047  20143748.4534   20143752.4364   20143748.0004
 97  6 10  3 11 59.9990000  0  7G15G21G23G25G 3G31G 1
  -1410409.01248  -1074905.57547  22864581.7074   22864586.1874   22864581.4764
  -1259455.72648   -976809.35947  20895465.4924   20895469.7104   20895465.0494
   1128230.18144    876774.29043  23453765.2114   23453766.1794   23453764.8414
  -8351353.11348  -6485203.05347  24045050.6504   24045055.1704   24045050.5364
   1949452.78544   1515935.70043  22722984.0914   22722989.5064   22722983.6644
  -1222799.47048   -946620.12347  22149514.1924   22149518.6284   22149513.7444
  -3214739.05448  -2326693.15947  20139918.9394   20139922.8484   20139918.4694
 97  6 10  3 12 14.9990000  0  7G15G21G23G25G 3G31G 1
  -1482850.22948  -1131353.26647  22850796.8024   22850800.9154   22850796.4374
  -1267118.80548   -982780.59947  20894007.3244   20894011.4994   20894006.8234
   1138985.56844    885155.11043  23455811.9854   23455812.5624   23455811.5644
  -8423716.00548  -6541589.68447  24031280.4454   24031285.2864   24031280.2894
   1970520.09744   1532351.76543  22726992.9644   22726998.6514   22726992.6394
  -1225379.16448   -948630.28047  22149023.3834   22149028.0754   22149022.9004
  -3234728.83248  -2342269.60847  20136114.9884   20136118.9384   20136114.5494
 97  6 10  3 12 29.9990000  0  7G15G21G23G25G 3G31G 1
  -1555250.67448  -1187769.19147  22837019.7424   22837023.1384   22837019.2074
  -1274725.29548   -988707.73947  20892559.8614   20892564.1804   20892559.3504
   1149758.34144    893549.47243  23457861.8874   23457864.7304   23457861.3964
  -8496071.38548  -6597970.46747  24017511.7104   24017514.6364   24017511.4874
   1991648.50844   1548815.44743  22731013.5264   22731019.1004   22731013.2144
  -1227833.12548   -950542.46347  22148556.4474   22148560.4764   22148555.9564
  -3254589.68748  -2357745.59647  20132335.6224   20132339.5024   20132335.1854
 97  6 10  3 12 44.9990000  0  7G15G21G23G25G 3G31G 1
  -1627614.49248  -1244156.56447  22823249.5174   22823252.7904   22823248.8824
  -1282279.67448   -994594.27147  20891122.2564   20891126.6124   20891121.8354
   1160544.96044    901954.61043  23459914.3974   23459916.1934   23459913.9064
  -8568422.00648  -6654347.53447  24003743.8504   24003747.2774   24003743.6084
   2012835.30744   1565324.61743  22735045.1954   22735049.5724   22735044.8454
  -1230166.82848   -952360.94447  22148112.3144   22148116.4224   22148111.8744
  -3274330.45248  -2373128.01247  20128579.1504   20128582.7394   20128578.6464
 97  6 10  3 12 59.9990000  0  7G15G21G23G25G 3G31G 1
  -1699934.55248  -1300509.85147  22809487.5824   22809490.2304   22809486.8644
  -1289775.81448  -1000435.42247  20889695.7594   20889700.2504   20889695.3544
   1171356.56444    910379.22243  23461971.4314   23461971.4104   23461970.9094
  -8640761.59148  -6710716.01347  23989977.9294   23989981.3214   23989977.7754
   2034090.62444   1581887.18743  22739089.9024   22739094.4564   22739089.5854
  -1232374.32348   -954081.08047  22147692.2244   22147696.2504   22147691.7954
  -3293948.22248  -2388414.58847  20124845.9884   20124849.6944   20124845.5224
 97  6 10  3 13 14.9990000  0  7G15G21G23G25G 3G31G 1
  -1772219.68048  -1356835.91047  22795732.2764   22795734.5184   22795731.5214
  -1297224.20948  -1006239.37147  20888278.3684   20888283.0094   20888277.9584
   1182185.88944    918817.63543  23464031.9524   23464031.9594   23464031.4204
  -8713098.20748  -6767082.17747  23976212.6464   23976216.7794   23976212.5344
   2055403.03044   1598494.24743  22743145.5514   22743150.6354   22743145.2254
  -1234462.90148   -955708.55847  22147294.8034   22147299.1814   22147294.3904
  -3313453.13248  -2403613.21447  20121134.3254   20121137.9334   20121133.8364
 97  6 10  3 13 29.9990000  0  7G15G21G23G25G 3G31G 1
  -1844464.33548  -1413130.43447  22781984.6354   22781987.4794   22781983.8504
  -1304620.12448  -1012002.42347  20886870.9874   20886875.1604   20886870.5584
   1193036.94944    927273.00843  23466096.5174   23466097.3304   23466095.9354
  -8785426.60348  -6823441.92847  23962449.0564   23962452.8334   23962448.8844
   2076775.48944   1615148.08343  22747212.6324   22747217.5724   22747212.3564
  -1236427.12248   -957239.13347  22146921.0154   22146925.6884   22146920.6374
  -3332842.12648  -2418721.52147  20117444.6744   20117448.2814   20117444.1774
 97  6 10  3 13 44.9990000  0  7G15G21G23G25G 3G31G 1
  -1916661.54348  -1469387.98447  22768245.8884   22768249.8214   22768245.1914
  -1311956.61548  -1017719.16347  20885474.9544   20885479.2414   20885474.4594
   1203917.90644    935751.66443  23468166.6884   23468168.4434   23468166.0314
  -8857740.42748  -6879790.34047  23948688.2034   23948691.4544   23948688.0014
   2098214.47544   1631853.77643  22751292.4034   22751297.7204   22751292.1004
  -1238263.36648   -958669.99747  22146571.6324   22146576.0004   22146571.2494
  -3352106.48248  -2433732.70747  20113778.6894   20113782.3364   20113778.2404
 97  6 10  3 13 59.9990000  0  7G15G21G23G25G 3G31G 1
  -1988825.73848  -1525619.81647  22754513.5154   22754516.2904   22754512.8914
  -1319245.19548  -1023398.57747  20884087.9874   20884092.1864   20884087.4354
   1214813.40044    944241.65743  23470239.5704   23470242.1824   23470238.9034
  -8930053.63648  -6936138.27147  23934927.4744   23934931.9264   23934927.2374
   2119704.33744   1648599.10843  22755381.7854   22755386.6864   22755381.4654
  -1239985.47948   -960011.91247  22146243.9204   22146247.9284   22146243.5404
  -3371260.48748  -2448657.90247  20110133.7044   20110137.5194   20110133.3024
 97  6 10  3 14 14.9990000  0  7G15G21G23G25G 3G31G 1
  -2060944.21048  -1581816.01347  22740789.9224   22740793.3054   22740789.3044
  -1326471.03048  -1029029.10347  20882712.8834   20882717.3294   20882712.3794
   1225735.78744    952752.60043  23472317.4944   23472321.0974   23472316.9064
  -9002353.79448  -6992476.03147  23921169.1984   23921173.9224   23921168.8924
   2141254.60644   1665391.50143  22759482.4714   22759487.4594   22759482.3084
  -1241578.23848   -961253.03847  22145940.8024   22145944.9994   22145940.4484
  -3390290.54348  -2463486.51847  20106512.3604   20106516.3124   20106511.9334
 97  6 10  3 14 29.9990000  0  7G15G21G23G25G 3G31G 1
  -2133027.85848  -1637985.07247  22727073.0544   22727075.8064   22727072.3304
  -1333643.85448  -1034618.31447  20881347.8914   20881352.4584   20881347.4164
   1236673.66144    961275.60443  23474398.5994   23474404.4644   23474397.9614
  -9074651.75148  -7048812.08047  23907411.2874   23907415.9904   23907410.9984
   2162855.40444   1682223.28243  22763592.9724   22763597.6644   22763592.7564
  -1243055.39248   -962404.07247  22145659.7754   22145663.6494   22145659.3404
  -3409208.44848  -2478227.74047  20102912.3414   20102916.4264   20102911.9274
 97  6 10  3 14 44.9990000  0  7G15G21G23G25G 3G31G 1
  -2205077.46348  -1694127.60947  22713362.7144   22713365.0164   22713361.8454
  -1340766.16848  -1040168.17347  20879992.5454   20879996.7924   20879992.0854
   1247626.47844    969810.29843  23476482.5074   23476488.9554   23476481.7864
  -9146949.16448  -7105147.69947  23893653.4754   23893657.7484   23893653.2054
   2184506.95944   1699094.59543  22767713.1564   22767718.3334   22767712.9424
  -1244420.06448   -963467.46347  22145400.1204   22145404.4404   22145399.6564
  -3428018.05048  -2492884.57047  20099332.9444   20099337.0204   20099332.5644
 97  6 10  3 14 59.9990000  0  7G15G21G23G25G 3G31G 1
  -2277094.09748  -1750244.45647  22699658.5494   22699661.5344   22699657.5634
  -1347839.79048  -1045680.08547  20878646.4964   20878650.4554   20878646.0474
   1258594.77144    978356.98643  23478569.0084   23478575.2124   23478568.3784
  -9219248.02448  -7161484.44747  23879895.3244   23879899.2934   23879895.0994
   2206207.02544   1716003.72743  22771842.5694   22771847.6594   22771842.3164
  -1245676.11748   -964446.20447  22145161.1044   22145165.2604   22145160.6454
  -3446719.27248  -2507456.94647  20095774.2384   20095778.4804   20095773.8254
 97  6 10  3 15 14.9990000  0  7G15G21G23G25G 3G31G 1
  -2349071.36248  -1806330.63147  22685961.6744   22685964.3324   22685960.7784
  -1354857.69548  -1051148.59247  20877311.0504   20877315.3234   20877310.6424
   1269581.08244    986917.76043  23480659.1234   23480666.6454   23480658.7654
  -9291541.90348  -7217817.33247  23866138.0834   23866142.0574   23866137.9374
   2227958.27344   1732952.72743  22775981.7174   22775986.7824   22775981.4114
  -1246815.64148   -965334.15547  22144944.2744   22144948.4364   22144943.7984
  -3465301.88248  -2521936.91147  20092238.1004   20092242.1054   20092237.6994
 97  6 10  3 15 29.9990000  0  7G15G21G23G25G 3G31G 1
  -2421011.25548  -1862387.68347  22672272.0184   22672274.0294   22672271.0954
  -1361823.72548  -1056576.66947  20875985.5284   20875989.6774   20875985.0964
   1280578.43844    995487.12943  23482751.5694   23482761.4094   23482751.2514
  -9363833.07348  -7274148.07047  23852381.4484   23852384.8134   23852381.3254
   2249755.86744   1749937.85643  22780129.6664   22780134.8484   22780129.3704
  -1247843.04448   -966134.73347  22144748.7014   22144753.2524   22144748.2704
  -3483766.48648  -2536324.91147  20088724.4784   20088728.7134   20088724.0244
 97  6 10  3 15 44.9990000  0  7G15G21G23G25G 3G31G 1
  -2492896.34848  -1918402.01947  22658592.8834   22658596.3334   22658591.8314
  -1368718.04348  -1061948.87047  20874673.6374   20874677.8694   20874673.1964
   1291605.04944   1004079.28443  23484849.6584   23484858.6824   23484849.3044
  -9436105.20548  -7330463.98647  23838628.5604   23838632.7634   23838628.3094
   2271618.29644   1766973.49043  22784289.9934   22784295.1544   22784289.7044
  -1248743.50348   -966836.39747  22144577.2594   22144581.6844   22144576.8834
  -3502094.37448  -2550606.38647  20085236.7854   20085240.7754   20085236.3574
 97  6 10  3 15 59.9990000  0  7G15G21G23G25G 3G31G 1
  -2564738.77848  -1974383.13247  22644921.7224   22644924.1564   22644920.6134
  -1375552.79248  -1067274.65347  20873373.0254   20873377.3174   20873372.6214
   1302651.09344   1012686.59343  23486951.4294   23486960.2874   23486951.1374
  -9508369.07548  -7386773.47347  23824877.2004   23824882.6104   23824876.8874
   2293531.49844   1784048.69343  22788459.9834   22788464.9174   22788459.6804
  -1249530.70348   -967449.81147  22144427.4724   22144431.8394   22144427.0854
  -3520297.54748  -2564790.68047  20081772.8374   20081776.8404   20081772.4424
 97  6 10  3 16 14.9990000  0  7G15G21G23G25G 3G31G 1
  -2636545.75548  -2030336.60347  22631257.1234   22631259.2754   22631256.1994
  -1382338.29448  -1072562.06347  20872081.7894   20872086.0284   20872081.3914
   1313707.45344   1021301.94943  23489055.2594   23489067.0074   23489055.1144
  -9580631.12948  -7443081.54047  23811126.0334   23811130.4934   23811125.7284
   2315486.91944   1801156.79443  22792638.0224   22792642.7964   22792637.7234
  -1250211.86748   -967980.59847  22144297.8484   22144302.1484   22144297.4944
  -3538384.49948  -2578884.41147  20078331.0644   20078335.1014   20078330.6324
 97  6 10  3 16 29.9990000  0  7G15G21G23G25G 3G31G 1
  -2708305.31148  -2086253.13747  22617601.4584   22617605.2894   22617600.7294
  -1389066.43848  -1077804.77247  20870801.4464   20870805.6744   20870801.0754
   1324784.01444   1029933.05343  23491163.3114   23491174.6234   23491163.1784
  -9652881.56348  -7499380.55947  23797377.0184   23797381.9344   23797376.8304
   2337496.71444   1818307.26643  22796826.3824   22796831.0534   22796826.0644
  -1250776.46648   -968420.56747  22144190.4914   22144194.6084   22144190.0704
  -3556342.03948  -2592877.30247  20074913.8514   20074917.8504   20074913.4364
 97  6 10  3 16 44.9990000  0  7G15G21G23G25G 3G31G 1
  -2780018.05648  -2142133.18047  22603954.6654   22603959.7174   22603954.1804
  -1395740.05548  -1083004.98847  20869531.5084   20869535.9574   20869531.1254
   1335878.14844   1038577.81043  23493274.6484   23493286.2554   23493274.4534
  -9725121.48348  -7555671.37647  23783630.1804   23783634.6644   23783630.0074
   2359560.27344   1835499.63043  22801024.8734   22801029.9994   22801024.6144
  -1251225.20348   -968770.24647  22144105.1724   22144109.1694   22144104.6914
  -3574170.30248  -2606769.45347  20071521.2694   20071525.0694   20071520.8194
 97  6 10  3 16 59.9990000  0  7G15G21G23G25G 3G31G 1
  -2851690.41548  -2197981.78147  22590315.6794   22590320.7854   22590315.2904
  -1402367.97748  -1088169.60347  20868270.2144   20868274.7524   20868269.8204
   1346983.09444   1047231.00443  23495388.1624   23495399.6464   23495387.9544
  -9797357.90948  -7611959.46647  23769884.1314   23769888.8454   23769883.8684
   2381668.97744   1852727.18143  22805232.0494   22805237.1694   22805231.8074
  -1251562.17148   -969032.82747  22144040.9884   22144044.9224   22144040.5534
  -3591873.23248  -2620563.94047  20068152.4854   20068156.6284   20068152.0504
 97  6 10  3 17 14.9990000  0  7G15G21G23G25G 3G31G 1
  -2923316.49048  -2253794.29747  22576685.6464   22576689.9734   22576685.2614
  -1408944.94848  -1093294.51347  20867018.5964   20867023.1104   20867018.2004
   1358102.84944   1055895.73143  23497504.6074   23497515.6904   23497504.3904
  -9869585.22248  -7668240.47347  23756139.7014   23756143.9264   23756139.4254
   2403829.67544   1869995.22943  22809449.1114   22809454.2454   22809448.8404
  -1251778.51048   -969201.42047  22143999.7554   22144003.8794   22143999.3964
  -3609444.56248  -2634255.88747  20064808.7654   20064813.0694   20064808.3334
 97  6 10  3 17 29.9990000  0  7G15G21G23G25G 3G31G 1
  -2994904.52648  -2309577.17547  22563062.9284   22563066.9034   22563062.4354
  -1415482.55948  -1098388.75347  20865774.4534   20865779.1514   20865774.0324
   1369227.31444   1064564.14443  23499622.0244   23499631.4414   23499621.7674
  -9941810.44148  -7724519.85047  23742395.5704   23742400.3194   23742395.3824
   2426033.39644   1887296.80843  22813674.3434   22813679.6334   22813674.1594
  -1251881.19848   -969281.44347  22143980.2614   22143984.5084   22143979.8724
  -3626894.81548  -2647853.48347  20061488.1024   20061492.4354   20061487.6714
 97  6 10  3 17 44.9990000  0  7G15G21G23G25G 3G31G 1
  -3066448.17048  -2365325.46647  22549448.6634   22549453.5334   22549448.1084
  -1421973.34048  -1103446.50347  20864539.1154   20864543.8814   20864538.7914
   1380366.08644   1073243.69543  23501742.0794   23501753.3694   23501741.7594
 -10014027.90948  -7780793.16847  23728653.0424   23728657.7574   23728652.9014
   2448288.13644   1904638.15243  22817909.3464   22817914.2334   22817909.2084
  -1251863.73348   -969267.83947  22143983.6564   22143987.4464   22143983.2234
  -3644219.30548  -2661353.08347  20058191.3744   20058195.4714   20058190.9274
 97  6 10  3 17 59.9990000  0  7G15G21G23G25G 3G31G 1
  -3137917.66248  -2421015.95847  22535848.3324   22535853.6294   22535847.8854
  -1428387.54348  -1108444.58447  20863318.4984   20863323.4844   20863318.1814
   1391550.53944   1081958.85343  23503870.8934   23503879.2724   23503870.5934
 -10086206.77048  -7837036.41847  23714917.9224   23714922.6084   23714917.6944
   2470622.66144   1922041.66443  22822159.4414   22822164.0894   22822159.2674
  -1251693.21348   -969134.97747  22144016.1354   22144020.0984   22144015.7124
  -3661389.07648  -2674732.12647  20054924.0884   20054928.2954   20054923.6574
 97  6 10  3 18 14.9990000  0  7G15G21G23G25G 3G31G 1
  -3209346.96748  -2476675.17747  22522255.6394   22522260.4004   22522255.3954
  -1434761.12448  -1113411.00847  20862105.6794   20862110.3754   20862105.3264
   1402744.48744   1090681.38543  23506001.4904   23506010.6734   23506001.1124
 -10158381.08948  -7893276.09347  23701183.6794   23701187.6264   23701183.3904
   2493003.24044   1939481.05443  22826418.2674   22826423.1724   22826418.1784
  -1251403.36648   -968909.13947  22144071.3534   22144075.4154   22144070.9094
  -3678437.64248  -2688016.72147  20051679.8694   20051684.0814   20051679.4444
 97  6 10  3 18 29.9990000  0  7G15G21G23G25G 3G31G 1
  -3280737.36448  -2532304.05547  22508670.4914   22508675.5834   22508670.2804
  -1441094.39648  -1118346.02547  20860900.5414   20860905.2174   20860900.1664
   1413945.22844   1099409.21843  23508133.2724   23508141.3924   23508132.8854
 -10230554.51048  -7949515.10247  23687449.5284   23687452.9924   23687449.2374
   2515430.91744   1956957.15343  22830686.2874   22830692.2754   22830686.0534
  -1250992.05548   -968588.64647  22144149.6304   22144153.5294   22144149.1734
  -3695366.76248  -2701208.24347  20048458.3994   20048462.3774   20048457.9794
 97  6 10  3 18 44.9990000  0  7G15G21G23G25G 3G31G 1
  -3352087.87148  -2587901.85347  22495092.9784   22495097.9194   22495092.6424
  -1447384.95448  -1123247.76147  20859703.5674   20859708.1964   20859703.1304
   1425157.72644   1108146.23543  23510267.2394   23510275.8314   23510266.8804
 -10302725.96348  -8005752.58047  23673715.6474   23673720.2504   23673715.4094
   2537906.54444   1974470.59543  22834963.2034   22834968.3474   22834963.0354
  -1250457.48648   -968172.10847  22144251.2584   22144255.5594   22144250.8464
  -3712175.28848  -2714305.79847  20045259.8514   20045263.8444   20045259.4434
 97  6 10  3 18 59.9990000  0  7G15G21G23G25G 3G31G 1
  -3423397.10648  -2643467.50547  22481523.2994   22481528.2434   22481522.8994
  -1453629.59448  -1128113.71947  20858515.3404   20858520.0314   20858514.8734
   1436386.28644   1116895.74943  23512404.1784   23512412.3834   23512403.7004
 -10374892.61448  -8061986.29947  23659982.6984   23659986.5344   23659982.5194
   2560430.03544   1992021.35743  22839249.3384   22839253.8744   22839249.2624
  -1249799.19848   -967659.16847  22144376.4904   22144380.5924   22144376.0654
  -3728863.11648  -2727309.30047  20042084.3054   20042088.1194   20042083.8934
 97  6 10  3 19 14.9990000  0  7G15G21G23G25G 3G31G 1
  -3494661.82848  -2698998.43747  22467961.9684   22467967.6374   22467961.6594
  -1459822.87048  -1132939.65147  20857336.8794   20857341.9424   20857336.4064
   1447637.22644   1125662.68143  23514545.1974   23514553.2164   23514544.7354
 -10447050.34948  -8118213.06747  23646251.4844   23646255.2894   23646251.3004
   2583006.55144   2009613.42643  22843545.6854   22843551.2984   22843545.4114
  -1249014.48348   -967047.72247  22144525.8254   22144530.1554   22144525.3874
  -3745431.37448  -2740219.62747  20038931.5664   20038935.1764   20038931.1094
 97  6 10  3 19 29.9990000  0  7G15G21G23G25G 3G31G 1
  -3565877.86248  -2754491.47247  22454409.9534   22454416.4024   22454409.7004
  -1465956.88648  -1137719.41147  20856169.6654   20856174.4134   20856169.2024
   1458915.23544   1134450.75843  23516691.4224   23516697.8204   23516690.9664
 -10519191.76448  -8174427.12247  23632523.4034   23632528.2814   23632523.2084
   2605639.33644   2027249.34043  22847852.5154   22847857.7634   22847852.2404
  -1248101.46048   -966336.28547  22144699.6054   22144703.9834   22144699.1574
  -3761879.34548  -2753036.23047  20035801.6694   20035805.1854   20035801.1904
 97  6 10  3 19 44.9990000  0  7G15G21G23G25G 3G31G 1
  -3637049.63148  -2809949.96647  22440866.5074   22440872.2514   22440866.1504
  -1472034.81948  -1142455.46047  20855013.1374   20855017.7134   20855012.7064
   1470217.17744   1143257.44843  23518842.1784   23518848.7544   23518841.6584
 -10591321.46448  -8230632.04847  23618797.5234   23618801.8444   23618797.3214
   2628322.29844   2044924.37243  22852168.9144   22852173.7194   22852168.7714
  -1247067.88848   -965530.91547  22144896.2234   22144900.6154   22144895.8714
  -3778212.08348  -2765763.03747  20032693.6184   20032697.2604   20032693.1824
 97  6 10  3 19 59.9990000  0  7G15G21G23G25G 3G31G 1
  -3708187.24448  -2865381.87447  22427329.5144   22427334.0204   22427329.1064
  -1478064.20848  -1147153.68247  20853865.8524   20853870.7724   20853865.3954
   1481533.50644   1152075.37243  23520995.4704   23521002.3874   23520994.9404
 -10663450.43048  -8286836.39947  23605071.7634   23605075.7084   23605071.5804
   2651043.99144   2062629.57043  22856492.6064   22856497.8574   22856492.5334
  -1245926.01348   -964641.15447  22145113.4804   22145117.7274   22145113.1664
  -3794438.87348  -2778407.29047  20029605.7124   20029609.6274   20029605.3184
 97  6 10  3 20 14.9990000  0  7G15G21G23G25G 3G31G 1
  -3779275.45848  -2920775.29747  22413801.7444   22413805.9744   22413801.4894
  -1484031.60148  -1151803.59847  20852730.3164   20852734.6264   20852729.8504
   1492875.78644   1160913.52743  23523153.5844   23523161.1564   23523153.1204
 -10735562.92348  -8343027.90747  23591349.1184   23591352.7094   23591348.9654
   2673818.15044   2080375.64743  22860826.3774   22860831.9524   22860826.3394
  -1244663.15448   -963657.12347  22145353.7834   22145358.0874   22145353.4834
  -3810545.45348  -2790957.87647  20026540.6874   20026544.8634   20026540.3444
 97  6 10  3 20 29.9990000  0  7G15G21G23G25G 3G31G 1
  -3850321.44748  -2976135.79847  22400282.1624   22400286.0514   22400281.9964
  -1489943.36848  -1156410.16947  20851605.3624   20851609.5924   20851604.8494
   1504235.00044   1169764.87243  23525314.9324   23525324.1974   23525314.5384
 -10807667.08448  -8399212.93947  23577628.1244   23577631.8304   23577627.9474
   2696638.42444   2098157.67543  22865169.1624   22865174.4854   22865168.9314
  -1243286.19148   -962584.17547  22145615.8724   22145620.0844   22145615.5234
  -3826542.44048  -2803423.05347  20023496.5614   20023500.4914   20023496.1924
 97  6 10  3 20 44.9990000  0  7G15G21G23G25G 3G31G 1
  -3921324.13448  -3031462.55747  22386770.9094   22386776.1334   22386770.6104
  -1495799.29548  -1160973.22647  20850490.9714   20850494.8314   20850490.4584
   1515611.59244   1178629.74443  23527479.7034   23527488.6344   23527479.3144
 -10879762.60948  -8455391.23647  23563908.8394   23563911.8204   23563908.6144
   2719503.95144   2115974.97043  22869520.0144   22869525.6794   22869519.9314
  -1241794.63448   -961421.93647  22145899.7654   22145903.7634   22145899.3844
  -3842431.76348  -2815804.34747  20020472.9314   20020476.8874   20020472.5424
 97  6 10  3 20 59.9990000  0  7G15G21G23G25G 3G31G 1
  -3992284.71548  -3086756.50447  22373267.5374   22373271.8694   22373267.2434
  -1501601.94948  -1165494.77847  20849386.6414   20849390.6344   20849386.2224
   1527002.22444   1187505.54243  23529647.4294   23529654.9094   23529646.9134
 -10951849.02748  -8511562.45547  23550191.2834   23550194.7194   23550191.0774
   2742411.30544   2133824.81043  22873879.0734   22873885.0234   22873878.9534
  -1240193.95148   -960174.67147  22146204.4574   22146208.5744   22146204.0604
  -3858216.61448  -2828104.23247  20017469.1564   20017473.2174   20017468.7694
 97  6 10  3 21 14.9990000  0  7G15G21G23G25G 3G31G 1
  -4063201.84848  -3142016.59747  22359772.4244   22359776.1824   22359772.3084
  -1507352.02448  -1169975.36047  20848292.3444   20848296.3304   20848292.0244
   1538404.28544   1196390.26343  23531817.2534   23531824.4184   23531816.6794
 -11023924.17348  -8567724.87447  23536475.8874   23536480.0474   23536475.6564
   2765360.23044   2151707.08743  22878246.2324   22878250.9364   22878246.0094
  -1238483.43348   -958841.80947  22146530.0054   22146534.1414   22146529.5874
  -3873898.42948  -2840323.82347  20014484.9964   20014489.1274   20014484.6104
 97  6 10  3 21 29.9990000  0  7G15G21G23G25G 3G31G 1
  -4134069.22848  -3197237.91747  22346286.8834   22346289.8184   22346286.7734
  -1513043.29648  -1174410.11747  20847209.3874   20847213.2084   20847209.0574
   1549821.66744   1205286.90543  23533990.0524   23533995.6244   23533989.4944
 -11095982.08648  -8623873.85947  23522763.7834   23522766.8284   23522763.4944
   2788355.43744   2169625.39843  22882622.1004   22882626.7724   22882621.8384
  -1236657.89548   -957419.32647  22146877.3724   22146881.4244   22146876.9924
  -3889469.61348  -2852457.21547  20011521.9364   20011526.0644   20011521.5214
 97  6 10  3 21 44.9980000  0  7G15G21G23G25G 3G31G 1
  -4204880.48848  -3252415.52047  22332812.1654   22332816.3914   22332811.9604
  -1518676.45148  -1178799.59147  20846137.5824   20846141.3924   20846137.1414
   1561253.70344   1214194.96143  23536165.7274   23536171.3314   23536165.1124
 -11168018.18448  -8680005.86647  23509055.7334   23509058.5434   23509055.4944
   2811392.68544   2187576.48343  22887005.6884   22887011.4924   22887005.6344
  -1234718.14148   -955907.84347  22147246.5274   22147250.5534   22147246.1034
  -3904922.99148  -2864498.80747  20008581.2374   20008585.3994   20008580.8404
 97  6 10  3 21 59.9980000  0  7G15G21G23G25G 3G31G 1
  -4275641.23448  -3307553.76147  22319346.9894   22319349.4514   22319346.6764
  -1524251.17948  -1183143.53947  20845076.8304   20845080.5434   20845076.3324
   1572704.66144   1223117.77443  23538345.0324   23538349.1134   23538344.4254
 -11240042.61148  -8736128.75247  23495349.8214   23495353.8384   23495349.7404
   2834477.67844   2205564.76043  22891398.5274   22891405.4064   22891398.6584
  -1232659.67048   -954303.85147  22147638.2734   22147642.2684   22147637.8314
  -3920254.56048  -2876445.48147  20005663.7304   20005667.7614   20005663.3184
 97  6 10  3 22 14.9980000  0  7G15G21G23G25G 3G31G 1
  -4346339.07048  -3362642.97347  22305893.8684   22305896.9274   22305893.4174
  -1529761.50548  -1187437.30947  20844028.2404   20844032.3594   20844027.7514
   1584179.83744   1232059.43943  23540528.9524   23540531.6804   23540528.3024
 -11312041.72748  -8792231.93847  23481648.7824   23481651.9074   23481648.7974
   2857613.76344   2223592.85643  22895801.1934   22895805.6974   22895801.2884
  -1230473.17248   -952600.09947  22148054.3754   22148058.1904   22148053.9304
  -3935456.02148  -2888290.77247  20002770.9574   20002774.9824   20002770.5674
 97  6 10  3 22 29.9980000  0  7G15G21G23G25G 3G31G 1
  -4416992.35948  -3417697.46247  22292449.1184   22292451.3544   22292448.5084
  -1535226.51048  -1191695.76747  20842988.2894   20842992.2404   20842987.8214
   1595660.60344   1241005.50943  23542713.8334   23542716.0394   23542713.1574
 -11384035.09548  -8848330.63347  23467948.8464   23467952.4844   23467948.9344
   2880783.31344   2241647.03543  22900210.3354   22900214.9164   22900210.2014
  -1228176.23448   -950810.29347  22148491.5804   22148495.9284   22148491.0694
  -3950548.81148  -2900051.38547  19999898.8414   19999903.1894   19999898.4784
 97  6 10  3 22 44.9980000  0  7G15G21G23G25G 3G31G 1
  -4487599.83248  -3472716.26947  22279012.7624   22279015.7904   22279012.4224
  -1540643.23748  -1195916.59347  20841957.4994   20841961.3814   20841957.0484
   1607152.01444   1249959.81943  23544900.7704   23544902.5014   23544900.1434
 -11456022.02248  -8904424.30447  23454250.2724   23454252.9624   23454250.2294
   2903985.74144   2259726.80343  22904625.7184   22904631.2004   22904625.5264
  -1225768.81848   -948934.39747  22148949.7544   22148953.9604   22148949.1874
  -3965530.57148  -2911725.47947  19997047.9154   19997052.1774   19997047.5414
 97  6 10  3 22 59.9980000  0  7G15G21G23G25G 3G31G 1
  -4558152.11648  -3527692.10047  22265586.8174   22265590.1874   22265586.7484
  -1546002.98248  -1200093.02147  20840937.5364   20840941.2104   20840937.0644
   1618665.96744   1258931.69843  23547092.0724   23547093.0654   23547091.3554
 -11527991.56848  -8960504.45047  23440554.9804   23440558.0854   23440554.8804
   2927227.91044   2277837.56943  22909048.6824   22909053.3064   22909048.4944
  -1223246.28048   -946968.79547  22149429.7384   22149433.9874   22149429.1774
  -3980389.10948  -2923303.56047  19994220.4394   19994224.7144   19994220.0684
 97  6 10  3 23 14.9980000  0  7G15G21G23G25G 3G31G 1
  -4628662.37548  -3582635.13147  22252169.0644   22252172.6124   22252169.0454
  -1551318.04048  -1204234.62247  20839926.0534   20839930.2604   20839925.5704
   1630192.64844   1267913.51943  23549285.6444   23549286.0874   23549284.7464
 -11599956.20048  -9016580.75347  23426860.5214   23426863.3924   23426860.4034
   2950497.12244   2295969.40843  22913476.7424   22913479.9934   22913476.4564
  -1220622.11148   -944923.99747  22149929.0764   22149933.1274   22149928.5314
  -3995136.45748  -2934795.00147  19991414.1444   19991418.3714   19991413.7484
 97  6 10  3 23 29.9980000  0  7G15G21G23G25G 3G31G 1
  -4699111.98648  -3637530.93947  22238762.9724   22238765.9034   22238762.9614
  -1556569.11148  -1208326.35747  20838926.7664   20838931.1664   20838926.2204
   1641752.60344   1276921.26443  23551485.3254   23551485.8344   23551484.4544
 -11671900.27348  -9072641.03847  23413169.9234   23413172.5994   23413169.8514
   2973813.10844   2314137.65943  22917913.6524   22917918.2614   22917913.3424
  -1217877.93548   -942785.68747  22150451.3334   22150455.5174   22150450.7524
  -4009753.35148  -2946184.78347  19988632.7104   19988636.9854   19988632.2484
 97  6 10  3 23 44.9980000  0  7G15G21G23G25G 3G31G 1
  -4769503.23748  -3692381.26747  22225368.2114   22225372.8164   22225368.2304
  -1561757.54248  -1212369.29747  20837939.2414   20837944.2874   20837938.7754
   1653344.37744   1285953.84443  23553691.0584   23553690.7224   23553690.3194
 -11743827.51148  -9128688.21647  23399482.5324   23399486.3454   23399482.5114
   2997175.46044   2332342.07343  22922359.4164   22922363.3514   22922359.1264
  -1215018.44248   -940557.51847  22150995.4534   22150999.7064   22150994.9144
  -4024240.38248  -2957473.38047  19985875.9524   19985879.9484   19985875.4704
 97  6 10  3 23 59.9980000  0  7G15G21G23G25G 3G31G 1
  -4839843.55648  -3747191.88047  22211983.1864   22211985.7804   22211982.8614
  -1566892.00548  -1216370.17147  20836962.0254   20836966.8884   20836961.6294
   1664960.02144   1295004.98143  23555901.4774   23555900.3934   23555900.7054
 -11815745.66948  -9184728.30747  23385796.9424   23385801.1644   23385796.8544
   3020576.71244   2350576.79843  22926812.5774   22926817.8294   22926812.3094
  -1212051.13448   -938245.34147  22151560.0624   22151564.1694   22151559.5784
  -4038609.94748  -2968670.44447  19983141.5074   19983145.4164   19983141.0214
 97  6 10  3 24 14.9980000  0  7G15G21G23G25G 3G31G 1
  -4910120.01348  -3801952.77447  22198610.2414   22198615.0414   22198609.8094
  -1571960.16348  -1220319.38747  20835997.4844   20836002.3024   20835997.1264
   1676611.91144   1304084.37043  23558118.7484   23558119.3534   23558117.9244
 -11887638.37348  -9240748.56147  23372116.2154   23372119.9094   23372116.0514
   3044032.04244   2368853.62843  22931275.9944   22931279.1904   22931275.7984
  -1208961.69448   -935837.99847  22152147.9204   22152152.0774   22152147.5154
  -4052854.71248  -2979770.26547  19980430.8044   19980434.6694   19980430.3174
 97  6 10  3 24 29.9980000  0  7G15G21G23G25G 3G31G 1
  -4980345.08948  -3856673.60447  22185247.0614   22185251.5544   22185244.3204
  -1576973.19148  -1224225.63147  20835043.5254   20835048.6224   20835043.1874
   1688288.78944   1313183.20543  23560340.5394   23560339.9444   23560339.8044
 -11959515.90148  -9296757.00347  23358438.2804   23358442.2974   23358438.1634
   3067531.87944   2387165.17343  22935747.8804   22935752.5664   22935747.7624
  -1205764.60748   -933346.75947  22152756.2714   22152760.6994   22152755.8884
  -4066988.25248  -2990783.41147  19977741.2754   19977745.0394   19977740.8044
 97  6 10  3 24 44.9980000  0  7G15G21G23G25G 3G31G 1
  -5050505.66458  -3911344.14847  22171895.9224   22171897.1444   22171891.6664
  -1581916.75748  -1228077.75947  20834102.9174   20834107.7954   20834102.4494
   1700004.51444   1322312.35143  23562569.7994   23562570.7694   23562569.1274
 -12031365.19148  -9352743.42547  23344765.7134   23344769.2824   23344765.6424
   3091092.91244   2405524.41343  22940231.3864   22940236.0004   22940231.3434
  -1202450.39248   -930764.25947  22153387.0034   22153391.0384   22153386.5684
  -4080995.74448  -3001698.34047  19975075.7004   19975079.4974   19975075.2594
 97  6 10  3 24 59.9980000  0  7G15G21G23G25G 3G31G 1
  -5120615.58648  -3965975.23347  22158554.5414   22158556.6754   22158550.9344
  -1586807.98248  -1231889.10347  20833172.1474   20833176.7964   20833171.6934
   1711744.42944   1331460.29643  23564803.6584   23564804.8644   23564803.0034
 -12103197.35848  -9408716.50447  23331096.3904   23331100.1704   23331096.4284
   3114699.15544   2423918.86643  22944723.3274   22944728.4524   22944723.4424
  -1199035.62248   -928103.40647  22154036.9444   22154040.7714   22154036.4294
  -4094887.27948  -3012522.91847  19972432.1944   19972435.9304   19972431.7794
 97  6 10  3 25 14.9980000  0  7G15G21G23G25G 3G31G 1
  -5190666.25758  -4020560.11747  22145224.7574   22145228.5964   22145222.3424
  -1591639.26348  -1235653.74147  20832252.7274   20832257.7154   20832252.3444
   1723514.35744   1340631.69143  23567043.3324   23567045.1254   23567042.7754
 -12175002.92448  -9464668.86747  23317432.1694   23317436.6304   23317432.2554
   3138359.70944   2442355.61343  22949225.6724   22949228.0364   22949225.8224
  -1195510.49548   -925356.55847  22154707.9524   22154712.0104   22154707.3124
  -4108655.43848  -3023251.35647  19969812.1734   19969816.1164   19969811.7854
 97  6 10  3 25 29.9980000  0  7G15G21G23G25G 3G31G 1
  -5260676.62158  -4075113.61847  22131902.9464   22131900.3184
  -1596429.92448  -1239386.73347  20831341.0404   20831345.9794   20831340.7524
   1735291.01644   1349808.30743  23569284.2924   23569287.3824   23569283.7334
 -12246802.22048  -9520616.34347  23303769.1364   23303774.0944   23303769.2234
   3162054.49744   2460819.05043  22953735.0054   22953740.4524   22953734.8254
  -1191893.03648   -922537.76147  22155396.4004   22155400.3454   22155395.7494
  -4122320.57848  -3033899.51547  19967211.7804   19967215.6884   19967211.4114
 97  6 10  3 25 44.9980000  0  7G15G21G23G25G 3G31G 1
  -5330624.83248  -4129618.65547  22118592.3834   22118589.7054
  -1601159.29148  -1243071.95647  20830441.0994   20830445.9674   20830440.8514
   1747093.53844   1359005.08743  23571529.8644   23571532.6334   23571529.3414
 -12318571.32948  -9576540.30447  23290112.0054   23290116.8844   23290111.9464
   3185803.23044   2479324.57743  22958254.4314   22958256.2314   22958254.2024
  -1188160.68248   -919629.42947  22156106.5564   22156110.1614   22156106.0064
  -4135862.22048  -3044451.44847  19964634.9034   19964638.8244   19964634.5364
 97  6 10  3 25 59.9980000  0  7G15G21G23G25G 3G31G 1
  -5400518.54448  -4184081.17347  22105291.7224   22105292.0384   22105289.7184
  -1605836.80248  -1246716.77647  20829551.1444   20829555.6174   20829550.8444
   1758914.01244   1368215.87143  23573778.9444   23573782.8084   23573778.5704
 -12390314.78548  -9632444.27747  23276459.6784   23276463.7084   23276459.4924
   3209594.77044   2497863.44743  22962781.6214   22962786.6784   22962781.3204
  -1184320.44948   -916637.03647  22156837.1984   22156841.2484   22156836.7674
  -4149289.12548  -3054913.97047  19962079.8574   19962084.0034   19962079.5054
 97  6 10  3 26 14.9980000  0  7G15G21G23G25G 3G31G 1
  -5470359.44648  -4238502.60247  22092001.0954   22092006.3964   22091999.7834
  -1610465.17148  -1250323.29847  20828670.5414   20828674.6094   20828670.1814
   1770750.14744   1377438.82543  23576031.0544   23576034.8154   23576030.6164
 -12462033.08648  -9688328.64347  23262812.0204   23262816.8484   23262811.8454
   3233424.93544   2516432.38843  22967316.1574   22967320.4674   22967315.9014
  -1180372.85748   -913560.98047  22157588.3494   22157591.7974   22157587.9724
  -4162603.81948  -3065289.05647  19959546.1874   19959550.2904   19959545.8264
 97  6 10  3 26 29.9980000  0  7G15G21G23G25G 3G31G 1
  -5540131.85648  -4292870.69947  22078724.2324   22078728.0344   22078722.3024
  -1615028.43448  -1253879.09447  20827802.2124   20827806.4214   20827801.8464
   1782619.36644   1386687.57543  23578289.5494   23578292.6104   23578289.1944
 -12533711.57648  -9744181.99347  23249171.9154   23249176.9714   23249171.7954
   3257309.80344   2535043.93043  22971861.2214   22971866.6424   22971861.2154
  -1176303.80148   -910390.28947  22158362.5974   22158366.9814   22158362.3344
  -4175785.12248  -3075560.20547  19957037.9554   19957042.1164   19957037.5604
 97  6 10  3 26 44.9980000  0  7G15G21G23G25G 3G31G 1
  -5609854.60648  -4347200.13047  22065456.8724   22065461.6964   22065454.5064
  -1619546.23148  -1257399.46347  20826942.4514   20826947.0644   20826942.1574
   1794503.44944   1395947.86943  23580551.0364   23580555.1624   23580550.5544
 -12605370.94448  -9800020.44047  23235535.4404   23235541.5674   23235535.3274
   3281227.20644   2553680.81043  22976412.7044   22976416.7244   22976412.7794
  -1172134.81948   -907141.73347  22159156.0284   22159159.3164   22159155.6994
  -4188849.68648  -3085740.38547  19954551.9614   19954555.8124   19954551.5014
 97  6 10  3 26 59.9980000  0  7G15G21G23G25G 3G31G 1
  -5679499.89248  -4401469.19347  22052203.9344   22052206.5614   22052201.8214
  -1623991.13348  -1260863.02947  20826096.6134   20826101.3784   20826096.3254
   1806429.75744   1405241.10143  23582820.6724   23582823.0604   23582820.2474
 -12676983.81548  -9855822.64347  23221907.8424   23221913.0544   23221907.7444
   3305199.99944   2572360.84443  22980974.8974   22980977.9144   22980974.7014
  -1167837.62648   -903793.28247  22159973.9194   22159978.3514   22159973.4874
  -4201771.59948  -3095809.40847  19952093.0954   19952097.0884   19952092.5794
 97  6 10  3 27 14.9980000  0  7G15G21G23G25G 3G31G 1
  -5749082.40348  -4455689.32247  22038962.8254   22038965.6684   22038960.8554
  -1628380.03048  -1264282.95747  20825261.4364   20825265.8334   20825261.1554
   1818381.75844   1414554.32743  23585095.3014   23585099.7824   23585094.8564
 -12748565.56948  -9911600.61047  23208286.2074   23208291.9574   23208286.0644
   3329209.51844   2591069.52243  22985544.1194   22985547.5924   22985543.5334
  -1163425.57948   -900355.30647  22160813.5604   22160817.8044   22160813.0414
  -4214570.71548  -3105782.74747  19949657.5274   19949661.5884   19949657.0264
 97  6 10  3 27 29.9980000  0  7G15G21G23G25G 3G31G 1
  -5818615.41248  -4509870.84847  22025730.7934   22025733.5764   22025728.6504
  -1632725.53648  -1267669.05747  20824434.5144   20824439.0864   20824434.1954
   1830345.66244   1423876.88443  23587372.4804   23587373.6814   23587371.9744
 -12820133.49448  -9967367.79447  23194667.1814   23194672.8664   23194667.0504
   3353243.63444   2609797.42343  22990117.4634   22990121.3044   22990116.7624
  -1158911.32348   -896837.70847  22161672.4834   22161676.5524   22161672.0404
  -4227265.07048  -3115674.44847  19947241.8534   19947245.9484   19947241.3654
 97  6 10  3 27 44.9980000  0  7G15G21G23G25G 3G31G 1
  -5888087.27648  -4564004.75047  22012510.4304   22012513.0224   22012508.1244
  -1637014.46748  -1271011.07947  20823618.3094   20823623.1404   20823617.9404
   1842334.01744   1433218.40843  23589654.4534   23589656.0974   23589653.7514
 -12891676.35948 -10023115.46047  23181052.9664   23181058.2614   23181052.7994
   3377314.69444   2628554.07943  22994697.3554   22994702.3754   22994696.9774
  -1154284.53548   -893232.42847  22162552.8924   22162557.0874   22162552.5054
  -4239843.73748  -3125476.01047  19944848.2274   19944852.2254   19944847.7424
 97  6 10  3 27 59.9980000  0  7G15G21G23G25G 3G31G 1
  -5957500.85348  -4618093.24647  21999301.2894   21999304.8554   21999298.8894
  -1641248.67348  -1274310.46647  20822812.3944   20822817.4594   20822812.0734
   1854345.89744   1442578.33243  23591940.6284   23591941.4134   23591940.0114
 -12963196.01148 -10078845.04347  23167443.2064   23167448.6474   23167442.9744
   3401419.54244   2647337.05443  22999283.9914   22999291.3564   22999284.0674
  -1149548.69548   -889542.18047  22163454.0424   22163457.3974   22163453.7574
  -4252309.58748  -3135189.65747  19942476.0514   19942479.9224   19942475.5414
 97  6 10  3 28 14.9980000  0  7G15G21G23G25G 3G31G 1
  -6026859.24448  -4672138.74847  21986102.7804   21986106.6414   21986100.2514
  -1645428.54948  -1277567.50447  20822016.9254   20822022.6634   20822016.6114
   1866377.93244   1451953.93143  23594230.5684   23594231.8804   23594230.0464
 -13034698.57148 -10134561.30847  23153836.6124   23153842.0214   23153836.4394
   3425555.21244   2666144.03943  23003877.1834   23003884.7714   23003877.0044
  -1144710.30648   -885772.01747  22164374.6344   22164378.7304   22164374.5124
  -4264665.29448  -3144817.48147  19940124.7954   19940128.5844   19940124.2944
 97  6 10  3 28 29.9980000  0  7G15G21G23G25G 3G31G 1
  -6096151.01848  -4726132.34347  21972916.9104   21972920.7014   21972914.4834
  -1649541.61248  -1280772.48647  20821234.2794   20821239.6524   20821233.8834
   1878441.67844   1461354.20043  23596526.6084   23596528.9464   23596526.0584
 -13106173.96148 -10190256.39647  23140235.2334   23140242.5974   23140235.1294
   3449733.04044   2684983.86943  23008478.5124   23008483.8744   23008477.7424
  -1139758.70748   -881913.64647  22165316.8484   22165321.7024   22165316.7424
  -4276898.68548  -3154349.99547  19937796.7674   19937800.6074   19937796.3074
 97  6 10  3 28 44.9980000  0  7G15G21G23G25G 3G31G 1
  -6165383.23148  -4780079.53147  21959742.4074   21959743.6814   21959739.8474
  -1653592.46648  -1283928.99247  20820463.4354   20820468.8144   20820463.0164
   1890528.91244   1470772.82343  23598827.1624   23598828.3864   23598826.5464
 -13177630.25148 -10245936.59447  23126637.5694   23126643.3414   23126637.4304
   3473945.28344   2703850.50043  23013086.1204   23013090.9074   23013085.3544
  -1134701.97448   -877973.33447  22166279.1284   22166283.5664   22166279.0054
  -4289020.21948  -3163795.34147  19935490.0634   19935493.5064   19935489.6164
 97  6 10  3 28 59.9980000  0  7G15G21G23G25G 3G31G 1
  -6234554.82148  -4833979.47347  21946579.6824   21946580.9634   21946576.8394
  -1657580.09248  -1287036.23447  20819704.5644   20819710.1894   20819704.2124
   1902638.99844   1480209.21843  23601132.0234   23601134.6524   23601131.3104
 -13249065.20548 -10301600.16947  23113043.9784   23113050.3084   23113043.7734
   3498190.84944   2722743.13243  23017699.7754   23017702.3924   23017699.3014
  -1129537.41948   -873949.02847  22167262.0324   22167266.1484   22167261.7844
  -4301033.19048  -3173156.10347  19933204.0194   19933207.6194   19933203.5784
 97  6 10  3 29 14.9980000  0  7G15G21G23G25G 3G31G 1
  -6303673.70448  -4887838.33847  21933426.7134   21933430.3324   21933423.8004
  -1661513.15848  -1290100.96047  20818956.1574   20818961.8684   20818955.8024
   1914761.15944   1489655.02943  23603439.0524   23603441.0164   23603438.2514
 -13320485.25648 -10357252.13047  23099453.2174   23099458.9204   23099453.0354
   3522464.09844   2741657.34443  23022318.8684   23022321.1834   23022318.4134
  -1124271.18448   -869845.49647  22168264.1414   22168268.0074   22168263.9524
  -4312946.07848  -3182438.87347  19930937.0224   19930940.6524   19930936.5934
 97  6 10  3 29 29.9980000  0  7G15G21G23G25G 3G31G 1
  -6372732.42148  -4941650.32447  21920284.8774   21920289.4024   21920282.1784
  -1665383.34048  -1293116.68547  20818219.7064   20818224.9744   20818219.3474
   1926904.70444   1499117.52443  23605750.0574   23605752.9454   23605749.2964
 -13391882.35248 -10412886.21247  23085866.9034   23085872.5074   23085866.6784
   3546771.89944   2760598.48043  23026944.6664   23026947.0014   23026944.1654
  -1118895.96848   -865657.04547  22169287.0824   22169290.8144   22169286.8964
  -4324750.16348  -3191636.86547  19928690.7324   19928694.4924   19928690.3334
 97  6 10  3 29 44.9980000  0  7G15G21G23G25G 3G31G 1
  -6441725.23848  -4995410.98247  21907155.6374   21907158.7124   21907153.3554
  -1669181.98348  -1296076.66847  20817496.8844   20817502.0064   20817496.5444
   1939077.24644   1508602.61343  23608066.5614   23608067.4094   23608065.7854
 -13463247.11948 -10468495.09047  23072286.7244   23072291.8864   23072286.5034
   3571120.83944   2779571.64943  23031578.2704   23031583.1594   23031577.3904
  -1113406.90348   -861379.86747  22170331.6914   22170336.3744   22170331.4624
  -4336437.43748  -3200743.83347  19926466.7214   19926470.7584   19926466.3254
 97  6 10  3 29 59.9980000  0  7G15G21G23G25G 3G31G 1
  -6510665.04848  -5049130.31347  21894036.7494   21894038.2274   21894034.7444
  -1672923.14448  -1298991.86147  20816785.0324   20816790.2484   20816784.6854
   1951265.51444   1518099.93443  23610386.0504   23610387.3754   23610385.2924
 -13534589.09248 -10524086.22247  23058710.9094   23058715.3654   23058710.6914
   3595494.34744   2798563.99843  23036217.1184   23036221.0514   23036215.6494
  -1107816.73848   -857023.90047  22171395.5554   22171400.5764   22171395.1994
  -4348019.86148  -3209769.09947  19924262.7334   19924266.5074   19924262.2784
 97  6 10  3 30 14.9980000  0  7G15G21G23G25G 3G31G 1
  -6579533.32648  -5102793.90347  21880931.7014   21880934.2414   21880929.7064
  -1676592.58348  -1301851.15947  20816086.8564   20816091.7844   20816086.4174
   1963486.22344   1527622.55543  23612711.5464   23612712.9564   23612710.7884
 -13605891.11848 -10579646.22247  23045142.7524   23045146.9204   23045142.4574
   3619908.00644   2817587.61543  23040862.6994   23040867.1344   23040861.2994
  -1102108.14948   -852575.65247  22172481.8394   22172485.9654   22172481.4294
  -4359480.77348  -3218699.67847  19922081.8144   19922085.7364   19922081.3324
 97  6 10  3 30 29.9980000  0  7G15G21G23G25G 3G31G 1
  -6648333.00348  -5156404.03347  21867839.8204   21867841.0824   21867837.6624
  -1680197.77448  -1304660.39947  20815400.7724   20815405.5344   20815400.3414
   1975734.27244   1537166.44743  23615042.1294   23615044.0784   23615041.4664
 -13677156.00548 -10635177.28247  23031581.6524   23031586.5494   23031581.3064
   3644357.70644   2836639.27343  23045515.5194   23045517.2884   23045514.2994
  -1096284.17048   -848037.50447  22173589.9764   22173595.0154   22173589.6994
  -4370825.52848  -3227539.75447  19919922.9674   19919927.0774   19919922.5284
 97  6 10  3 30 44.9980000  0  7G15G21G23G25G 3G31G 1
  -6717077.67748  -5209971.31847  21854758.3954   21854759.4944   21854756.2594
  -1683756.47748  -1307433.41447  20814723.4864   20814728.5984   20814723.1114
   1987993.85544   1546719.37643  23617374.8704   23617377.5144   23617374.2374
 -13748394.46548 -10690687.74247  23018025.5234   23018028.7764   23018025.2104
   3668829.37444   2855708.07543  23050173.0784   23050177.7664   23050171.7974
  -1090358.20048   -843419.87747  22174717.5824   22174721.3234   22174717.3824
  -4382069.59748  -3236301.36447  19917783.3164   19917787.3764   19917782.8624
 97  6 10  3 30 59.9980000  0  7G15G21G23G25G 3G31G 1
  -6785738.89348  -5263473.56947  21841692.8214   21841696.0224   21841690.8294
  -1687242.83348  -1310150.05647  20814059.9824   20814065.1214   20814059.6844
   2000291.89044   1556302.27143  23619714.8434   23619720.0294   23619714.1804
 -13819575.74748 -10746153.65847  23004480.2144   23004483.7554   23004479.9454
   3693352.18244   2874816.79543  23054839.4084   23054841.0684   23054838.6574
  -1084302.91748   -838701.49147  22175869.7794   22175873.8234   22175869.6144
  -4393185.23048  -3244962.89447  19915668.0934   19915672.0574   19915667.6434
 97  6 10  3 31 14.9980000  0  7G15G21G23G25G 3G31G 1
  -6854336.37148  -5316926.15247  21828639.2354   21828640.6154   21828637.2354
  -1690680.12248  -1312828.46547  20813405.8904   20813410.9384   20813405.6134
   2012608.18044   1565899.36043  23622058.1534   23622062.1624   23622057.6164
 -13890718.16148 -10801589.28447  22990942.3384   22990945.7054   22990942.0824
   3717906.29644   2893949.86843  23059511.3574   23059517.1984   23059510.9884
  -1078139.52248   -833898.85547  22177042.5204   22177047.5484   22177042.4694
  -4404187.65848  -3253536.22047  19913574.4104   19913578.4804   19913573.9644
 97  6 10  3 31 29.9980000  0  7G15G21G23G25G 3G31G 1
  -6922873.64648  -5370331.80447  21815596.8234   21815597.7454   21815595.1524
  -1694071.34748  -1315470.98447  20812760.6474   20812765.1524   20812760.3524
   2024938.31944   1575507.24443  23624404.1714   23624409.9964   23624403.6784
 -13961826.16648 -10856998.10047  22977411.0064   22977414.3294   22977410.7894
   3742487.30444   2913103.88443  23064188.9894                   23064188.4244
  -1071873.35548   -829016.13347  22178234.8054   22178238.6874   22178234.8554
  -4415080.07948  -3262023.81547  19911501.6834   19911505.4864   19911501.2074
 97  6 10  3 31 44.9980000  0  7G15G21G23G25G 3G31G 1
  -6991341.15148  -5423683.09747  21802567.6564   21802567.6814   21802566.1944
  -1697406.36148  -1318069.69147  20812126.1654   20812130.3224   20812125.7924
   2037292.57244   1585133.91343  23626754.5834   23626760.3674   23626754.1234
 -14032892.36548 -10912374.32747  22963887.6124   22963891.7024   22963887.4234
   3767104.48154   2932286.10943  23068874.6634                   23068873.0134
  -1065497.58648   -824048.01647  22179447.8634   22179453.5214   22179448.0864
  -4425854.56148  -3270419.51747  19909451.3214   19909455.0654   19909450.8594
 97  6 10  3 31 59.9980000  0  7G15G21G23G25G 3G31G 1
  -7059732.29748  -5476974.90047  21789552.9434   21789555.1754   21789551.5294
  -1700680.83948  -1320621.24447  20811503.1424   20811507.2654   20811502.7324
   2049671.65144   1594779.98343  23629109.8584   23629116.5344   23629109.4134
 -14103911.99548 -10967714.26847  22950373.0614   22950376.5624   22950372.9014
   3791766.59444   2951503.33443  23073567.8164                   23073565.8054
  -1059005.77148   -818989.47947  22180683.1994   22180687.4504   22180683.3874
  -4436505.43348  -3278718.90547  19907424.4654   19907428.4914   19907424.0364
 97  6 10  3 32 14.9980000  0  7G15G21G23G25G 3G31G 1
  -7128060.06948  -5530217.32947  21776550.4804   21776552.5654   21776549.0564
  -1703910.32248  -1323137.72947  20810888.6074   20810892.7754   20810888.2774
   2062061.60144   1604434.45843  23631467.0774   23631475.2624   23631466.7724
 -14174902.85948 -11023031.79847  22936863.9894   22936866.9454   22936863.8044
   3816459.54644   2970744.51243  23078266.8604                   23078264.5464
  -1052411.12748   -813850.81747  22181938.2634   22181943.5574   22181938.3974
  -4447044.11248  -3286930.85947  19905418.9544   19905422.9444   19905418.5624
 97  6 10  3 32 29.9980000  0  7G15G21G23G25G 3G31G 1
  -7196314.14448  -5583402.31747  21763562.1184   21763564.6884   21763560.7604
  -1707082.17048  -1325609.30547  20810285.1274   20810289.1914   20810284.8264
   2074474.69944   1614106.98743  23633829.0244   23633836.4784   23633828.7854
 -14245856.25748 -11078320.13347  22923361.9324   22923365.0024   22923361.8374
   3841195.42154   2990019.20243  23082974.1614                   23082971.2094
  -1045704.61148   -808624.97247  22183214.7584   22183219.3064   22183214.6514
  -4457459.67848  -3295046.88947  19903436.8974   19903440.9514   19903436.5214
 97  6 10  3 32 44.9980000  0  7G15G21G23G25G 3G31G 1
  -7264505.00348  -5636538.04847  21750585.6904   21750586.7114   21750584.3694
  -1710205.11448  -1328042.77647  20809691.0314   20809695.1294   20809690.6804
   2086903.79444   1623792.02643  23636193.9514   23636202.4754   23636193.6604
 -14316781.91148 -11133586.84447  22909865.2464   22909868.9974   22909865.1444
   3865965.57444   3009320.60743  23087686.9144
  -1038895.65248   -803319.31147  22184510.5484   22184514.6354   22184510.4114
  -4467760.00248  -3303073.11247  19901476.8194   19901481.0254   19901476.4384
 97  6 10  3 32 59.9980000  0  7G15G21G23G25G 3G31G 1
  -7332617.45148  -5689612.67747  21737624.2424   21737626.0694   21737622.9374
  -1713261.12848  -1330424.09147  20809109.6894   20809113.6044   20809109.3104
   2099366.62044   1633503.28743  23638565.0674   23638574.0654   23638564.8754
 -14387666.10448 -11188821.25247  22896376.4274   22896379.2494   22896376.3794
   3890784.49744      7416.96843  23092409.2944
  -1031969.02748   -797921.94947  22185828.6984   22185831.9674   22185828.4284
  -4477926.85848  -3310995.33947  19899542.1374   19899546.1534   19899541.7734
 97  6 10  3 33 14.9980000  0  7G15G21G23G25G 3G31G 1
  -7400677.35548  -5742646.37247  21724672.7964   21724674.5694   21724671.5484
  -1716274.72548  -1332772.35347  20808536.4244   20808540.3704   20808535.9644
   2111840.38444   1643223.09543  23640938.5334   23640947.6814   23640938.3064
 -14458538.17148 -11244046.21347  22882889.9124   22882893.1804   22882889.8744
   3915625.04044     26773.23743  23097136.4244
  -1024951.54948   -792453.81447  22187164.0804   22187167.1214   22187163.6874
  -4487985.29348  -3318833.08647  19897628.1264   19897632.1794   19897627.7324
 97  6 10  3 33 29.9980000  0  7G15G21G23G25G 3G31G 1
  -7468668.12048  -5795626.18147  21711734.3844   21711736.6664   21711733.2354
  -1719226.49048  -1335072.43947  20807974.7404   20807978.1804   20807974.2614
   2124341.12944   1652963.94943  23643317.2604   23643326.7564   23643316.9614
 -14529382.94348 -11299249.90247  22869408.6814   22869411.8534   22869408.6114
   3940501.74844     46139.57043  23101870.8794
  -1017826.31348   -786901.69047  22188519.9724   22188525.1804   22188519.5984
  -4497923.03548  -3326576.77447  19895737.0834   19895740.8774   19895736.6584
 97  6 10  3 33 44.9980000  0  7G15G21G23G25G 3G31G 1
  -7536583.43548  -5848547.19747  21698810.3484   21698811.3414   21698809.2544
  -1722110.13348  -1337319.44347  20807425.9454   20807429.5214   20807425.5374
   2136876.40444   1662731.67743  23645702.4494   23645710.7654   23645702.1404
 -14600195.60948 -11354428.58147  22855933.5644   22855936.6074   22855933.4144
   3965419.95344     65530.57143  23106612.9874
  -1010588.48448   -781261.85147  22189897.4394   22189901.9634   22189897.0384
  -4507738.30548  -3334225.04147  19893869.3354   19893873.0444   19893868.8934
 97  6 10  3 33 59.9980000  0  7G15G21G23G25G 3G31G 1
  -7604432.14548  -5901416.32047  21685898.9774   21685901.0924   21685898.1094
  -1724936.12448  -1339521.50647  20806888.1504   20806891.5944   20806887.7644
   2149436.68044   1672518.90343  23648092.3934   23648101.2154   23648092.1314
 -14670983.24548 -11409587.75347  22842463.1984   22842466.7424   22842463.0234
   3990370.59944     84946.88443  23111361.0754
  -1003247.42148   -775541.55147  22191294.4884   22191298.8374   22191293.9994
  -4517440.33548  -3341785.06447  19892023.0954   19892026.9174   19892022.6694
 97  6 10  3 34 14.9980000  0  7G15G21G23G25G 3G31G 1
  -7672201.25548  -5954223.43047  21673002.9524   21673003.9894   21673002.1094
  -1727692.53548  -1341669.36547  20806363.5304   20806367.2144   20806363.1144
   2162035.51944   1682336.18943  23650489.8874   23650498.8054   23650489.6074
 -14741733.08148 -11464717.47247  22828999.9044   22829002.7664   22828999.7924
   4015363.32844    104395.94343  23116116.9374
   -995790.89348   -769731.27347  22192713.4284   22192716.7554   22192712.9864
  -4527017.99748  -3349248.17947  19890200.5304   19890204.3734   19890200.1224
 97  6 10  3 34 29.9980000  0  7G15G21G23G25G 3G31G 1
  -7739897.66148  -6006973.86847  21660120.8634   21660123.3824   21660120.0194
  -1730385.63048  -1343767.88047  20805850.9774   20805854.5654   20805850.5624
   2174669.23044   1692180.56743  23652894.1274   23652902.7164   23652893.7854
 -14812450.05248 -11519821.57347  22815542.8804   22815545.7204   22815542.7924
   4040388.17054      4272.78143  23120878.6294
   -988228.93248   -763838.86047  22194152.3894   22194158.0114   22194151.9054
  -4536480.67048  -3356621.69747  19888399.8214   19888403.6224   19888399.4574
 97  6 10  3 34 44.9980000  0  7G15G21G23G25G 3G31G 1
  -7807527.76648  -6059672.64947  21647251.2404   21647253.7184   21647250.6164
  -1733021.59848  -1345821.87947  20805349.3314   20805352.7324   20805348.8414
   2187328.48244   1702044.92443  23655303.1704   23655312.1734   23655302.8744
 -14883139.13148 -11574903.93347  22802091.1474   22802093.8834   22802091.0734
   4065436.72944     23791.16443  23125644.4034
   -980570.12348   -757870.96247  22195609.8324   22195614.8884   22195609.3034
  -4545837.99948  -3363913.12447  19886619.1854   19886622.8714   19886618.8324
 97  6 10  3 34 59.9980000  0  7G15G21G23G25G 3G31G 1
  -7875089.48248  -6112318.14247  21634394.6174   21634397.7524   21634393.9104
  -1735598.53148  -1347829.88247  20804858.7304   20804862.2094   20804858.2204
   2200009.37244   1711926.12743  23657716.3814   23657724.5104   23657716.1324
 -14953796.79048 -11629961.81747  22788645.4384   22788647.8234   22788645.3614
   4090508.07844     43358.88943  23130414.9024
   -972815.23348   -751828.20747  22197085.5594   22197089.7844   22197085.0034
  -4555090.62248  -3371122.96447  19884858.4934   19884862.3314   19884858.1574
 97  6 10  3 35 14.9980000  0  7G15G21G23G25G 3G31G 1
  -7942573.51848  -6164903.11347  21621552.8884   21621554.4264   21621551.9954
  -1738105.63948  -1349783.48247  20804381.2824   20804385.0074   20804380.9544
   2212717.75844   1721828.76843  23660134.8584   23660141.7184   23660134.6244
 -15024411.72548 -11684986.41447  22775207.8464   22775209.2724   22775207.7224
   4115609.27244     62977.32343  23135191.0374
   -964957.22548   -745705.09247  22198580.9714   22198584.5894   22198580.4264
  -4564235.10848  -3378248.54247  19883118.4204   19883122.2024   19883118.0484
 97  6 10  3 35 29.9980000  0  7G15G21G23G25G 3G31G 1
  -8009990.64748  -6217435.94147  21608723.8144   21608724.6644   21608722.8374
  -1740554.11548  -1351691.38247  20803915.1734   20803919.2364   20803914.8994
   2225440.14844   1731742.27143  23662556.0294   23662564.7564   23662555.8134
 -15094993.06848 -11739984.84647  22761776.6044   22761779.7684   22761776.5034
   4140728.75744     82610.01243  23139971.4084
   -957007.41248   -739510.45747  22200093.7844   22200099.7254   22200093.2734
  -4573285.00448  -3385300.40947  19881396.3744   19881399.9144   19881395.9304
 97  6 10  3 35 44.9980000  0  7G15G21G23G25G 3G31G 1
  -8077333.24248  -6269910.69547  21595908.9484   21595907.9034
  -1742939.60848  -1353550.21347  20803461.0954   20803464.8144   20803460.8154
   2238182.54444   1741671.41143  23664981.2614   23664989.1644   23664980.9364
 -15165530.50048 -11794949.04447  22748353.7634   22748356.8044   22748353.6344
   4165871.07244    102260.50443  23144755.5624
   -948957.77948   -733238.03147  22201625.4844   22201630.4104   22201625.0554
  -4582231.28648  -3392271.54347  19879694.0064   19879697.4764   19879693.5374
 97  6 10  3 35 59.9980000  0  7G15G21G23G25G 3G31G 1
  -8144608.55948  -6322333.01347  21583106.8784   21583109.9224   21583105.8974
  -1745272.36548  -1355367.94447  20803017.1534   20803021.2844   20803016.8434
   2250939.68844   1751612.07643  23667409.1014   23667416.9334   23667408.6064
 -15236032.20048 -11849885.42147  22734937.6634   22734940.9154   22734937.4954
   4191028.93144       980.18443  23149542.3964
   -940816.19248   -726893.94647  22203174.5524   22203179.7604   22203174.3074
  -4591077.27648  -3399164.52147  19878010.7114   19878014.1184   19878010.1974
 97  6 10  3 36 14.9980000  0  7G15G21G23G25G 3G31G 1
  -8211814.89748  -6374701.58447  21570317.8794   21570321.6524   21570317.0544
  -1747548.53948  -1357141.59647  20802584.0414   20802588.4124   20802583.6504
   2263713.02844   1761565.31243  23669839.7844   23669847.0094   23669839.2784
 -15306496.95748 -11904793.00347  22721528.5084   22721531.5154   22721528.3764
   4216201.23544     20594.85043  23154332.2334
   -932580.08348   -720476.20947  22204741.6104   22204747.0564   22204741.5334
  -4599820.51148  -3405977.43347  19876346.8884   19876350.1984   19876346.3984
 97  6 10  3 36 29.9980000  0  7G15G21G23G25G 3G31G 1
  -8278953.69548  -6427017.52047  21557541.7574   21557544.3754   21557540.9584
  -1749769.66548  -1358872.35247  20802161.3524   20802165.6864   20802160.9634
   2276501.39244   1771530.24343  23672273.2314   23672281.6214   23672272.8504
 -15376926.09448 -11959672.80947  22708126.1034   22708129.7664   22708126.0304
   4241385.02544     40213.48143  23159124.4844
   -924250.96848   -713986.02147  22206326.4544   22206331.6814   22206326.5114
  -4608461.09348  -3412710.35547  19874702.5964   19874706.1084   19874702.1194
 97  6 10  3 36 44.9980000  0  7G15G21G23G25G 3G31G 1
  -8346016.17248  -6479273.99347  21544780.1164   21544784.4784   21544779.3714
  -1751927.45948  -1360553.76047  20801750.6964   20801755.4124   20801750.4104
   2289312.46344   1781512.88043  23674711.0764   23674719.4524   23674710.8484
 -15447309.05548 -12014516.65647  22694732.5034   22694736.4844   22694732.4694
   4266589.50044     59839.51643  23163920.5484
   -915818.73448   -707415.45647  22207931.1644   22207936.3434   22207931.0874
  -4616986.03548  -3419353.16947  19873080.3014   19873083.7434   19873079.8544
 97  6 10  3 36 59.9980000  0  7G15G21G23G25G 3G31G 1
  -8412997.94148  -6531467.57247  21532033.9254   21532038.2974   21532033.2414
  -1754018.86248  -1362183.43047  20801352.8124   20801357.6334   20801352.5444
   2302149.59944   1791515.88243  23677154.0644   23677162.0764   23677153.7834
 -15517639.47248 -12069319.53847  22681348.9724   22681354.1104   22681348.8904
   4291820.16544     79485.95543  23168721.9674
   -907276.42648   -700759.13647  22209556.6404   22209563.4224   22209556.6094
  -4625388.29448  -3425900.37947  19871481.3444   19871484.9324   19871480.9244
 97  6 10  3 37 14.9980000  0  8G15G21G23G25G 3G31G29G 1
  -8479915.16248  -6583610.85847  21519299.9904   21519304.2844   21519299.2874
  -1756061.22148  -1363774.88547  20800964.4234   20800969.3414   20800964.0724
   2315003.15744   1801531.63743  23679600.1514   23679607.7494   23679599.8574
 -15587931.34448 -12124092.41447  22667972.7554   22667976.1664   22667972.6754
   4317062.23844     99141.30243  23173525.9944
   -898639.43248   -694029.00747  22211200.1424   22211205.5654   22211200.2204
   -354923.71148   -246122.20947  22620604.3164
  -4633684.36848  -3432364.85647  19869902.6054   19869905.8934   19869902.2204
 97  6 10  3 37 29.9980000  0  8G15G21G23G25G 3G31G29G 1
  -8546756.31448  -6635694.85947  21506580.4954   21506585.1724   21506579.8314
  -1758044.55648  -1365320.33747  20800587.3144   20800591.6934   20800586.8104
   2327889.34044   1811572.85043  23682052.4374   23682060.0654   23682052.1654
 -15658175.46548 -12178828.07447  22654605.5464   22654610.4404   22654605.5234
                                  23178334.442
   -889894.57548   -687214.83147  22212864.0514   22212869.4754   22212864.2344
   -421230.76748   -297790.01847  22607988.0214   22607991.2514
  -4641859.79748  -3438735.31947  19868346.8774   19868350.3814   19868346.4994
 97  6 10  3 37 44.9980000  0  8G15G21G23G25G 3G31G29G 1
  -8613526.93248  -6687723.90747  21493874.4574   21493878.5604
  -1759975.94748  -1366825.32447  20800219.8584   20800224.6764   20800219.3414
   2340803.25044   1821635.65543  23684510.0064   23684517.7044   23684509.6444
 -15728379.99748 -12233532.90147  22641245.9254   22641249.6144   22641245.9064
   4367614.17444     18040.48943  23183145.9184
   -881049.72948   -680322.75847  22214547.1094   22214551.9894   22214547.4264
   -487484.03748   -349415.91947  22595381.6634   22595383.3384
  -4649916.92848  -3445013.60747  19866813.6844   19866817.1264   19866813.3214
 97  6 10  3 37 59.9980000  0  8G15G21G23G25G 3G31G29G 1
  -8680224.29948  -6739695.87547  21481182.4894   21481186.7074   21481181.7344
  -1761851.56748  -1368286.85247  20799862.9394   20799867.8884   20799862.4864
   2353748.53644   1831722.87143  23686973.3554   23686981.0164   23686973.1044
 -15798544.82448 -12288206.77047  22627893.8344   22627898.3204   22627893.8904
   4392923.08944     37772.13643  23187961.8924
   -872103.80848   -673351.90947  22216249.6674   22216255.2554   22216249.7184
   -553681.68248   -400998.48547  22582784.4394   22582786.4784   22582781.0944
  -4657856.20248  -3451200.05147  19865302.9494   19865306.3894   19865302.5694
 97  6 10  3 38 14.9980000  0  8G15G21G23G25G 3G31G29G 1
  -8746852.96148  -6791614.31247  21468503.5814   21468507.8094   21468502.7594
  -1763671.74448  -1369705.17647  20799516.6044   20799521.7204   20799516.1424
   2366717.21744   1841828.35743  23689441.4064   23689448.4974   23689441.1384
 -15868676.46848 -12342854.79047  22614548.0864   22614552.7244   22614548.1874
   4418253.67744     57555.57943  23192782.7314
   -863063.79248   -666307.75447  22217969.9904   22217975.0644   22217970.0034
   -619826.00448   -452539.50747  22570196.5914   22570199.3844   22570194.4844
  -4665684.16548  -3457299.76147  19863813.4444   19863816.8494   19863812.9754
 97  6 10  3 38 29.9980000  0  8G15G21G23G25G 3G31G29G 1
  -8813404.69248  -6843472.78847  21455839.2834   21455842.4514   21455838.4564
  -1765427.00548  -1371072.91247  20799182.5784   20799187.4514   20799182.1584
   2379714.25344   1851955.92443  23691914.8174   23691921.4394   23691914.5574
 -15938764.27148 -12397468.63647  22601210.7594   22601215.6884   22601210.8844
   4443615.70544     77363.52143  23197609.3004
   -853923.32148   -659185.29447  22219709.4364   22219714.5914   22219709.4464
   -685906.37748   -504030.70047  22557621.4824   22557625.0604   22557620.4534
  -4673395.00848  -3463308.20847  19862346.1784   19862349.5974   19862345.6434
 97  6 10  3 38 44.9980000  0  8G15G21G23G25G 3G31G29G 1
  -8879879.32948  -6895271.21347  21443189.4624   21443193.6024   21443188.7374
  -1767118.43048  -1372390.90347  20798860.7524   20798865.3304   20798860.3144
   2392740.80244   1862106.48443  23694394.0264   23694399.3144   23694393.6944
 -16008806.41848 -12452046.92247  22587882.2274   22587886.7104   22587882.2914
   4469010.57544     97197.05543  23202442.0854
   -844684.06748   -651985.88847  22221467.4384   22221472.6664   22221467.5584
   -751923.79048   -555472.82347  22545058.4264   22545061.6844   22545057.5224
  -4680989.34448  -3469225.87047  19860900.9864   19860904.7044   19860900.4694
 97  6 10  3 38 59.9980000  0  8G15G21G23G25G 3G31G29G 1
  -8946276.02848  -6947008.88847  21430554.4314   21430558.5434   21430553.8934
  -1768743.69348  -1373657.34847  20798551.4894   20798556.1584   20798550.9584
   2405798.52844   1872281.32043  23696879.0784   23696884.7054   23696878.6484
 -16078801.63648 -12506588.63347  22574562.6834   22574567.9154   22574562.6374
   4494440.99744    117058.31343  23207281.2514
   -835345.91448   -644709.39647  22223244.3634   22223249.7864   22223244.4994
   -817875.78148   -606863.96047  22532508.1204   22532511.4404   22532507.2124
  -4688470.82048  -3475055.59247  19859477.2154   19859481.1444   19859476.7874
 97  6 10  3 39 14.9970000  0  8G15G21G23G25G 3G31G29G 1
  -9012581.39948  -6998675.41047  21417936.9284   21417941.1064   21417936.3884
  -1770293.24448  -1374864.78547  20798256.5024   20798261.2714   20798256.0344
   2418895.77044   1882486.95243  23699371.6784   23699376.6034   23699371.3114
 -16148740.17248 -12561086.17247  22561253.8804   22561259.0574   22561253.7814
   4519914.37544     15523.53343  23212128.7824
   -825905.15348   -637352.97947  22225040.8694   22225047.0064   22225041.0034
   -883748.58948   -658193.40647  22519972.9674   22519976.7304   22519972.0504
  -4695835.91848  -3480794.62947  19858075.6484   19858079.4074   19858075.2494
 97  6 10  3 39 29.9970000  0  8G15G21G23G25G 3G31G29G 1
  -9078816.01048  -7050286.78747  21405332.9554   21405336.7504   21405332.3194
  -1771777.28048  -1376021.17247  20797973.9484   20797979.1614   20797973.5164
   2432020.94044   1892714.39243  23701869.6794   23701875.2424   23701869.2504
 -16218647.11048 -12615559.08547  22547951.0614   22547956.4064   22547950.9004
   4545419.72444     35398.97543  23216982.1014
   -816373.56248   -629925.78847  22226854.6914   22226860.6994   22226854.8864
   -949560.91648   -709475.72347  22507449.1314   22507453.2554   22507448.4284
  -4703099.09348  -3486454.24947  19856693.4944   19856697.2904   19856693.1284
 97  6 10  3 39 44.9970000  0  8G15G21G23G25G 3G31G29G 1
  -9144953.93048  -7101822.83647  21392747.3624   21392750.3494   21392746.7184
  -1773176.02948  -1377111.11547  20797707.5644   20797712.8474   20797707.2144
   2445188.20344   1902974.55143  23704375.5014   23704380.1634   23704375.0384
 -16288497.18348 -12669987.69147  22534659.0064   22534663.5834   22534658.8834
   4570974.61344     55323.73943  23221844.3224
   -806733.45348   -622414.03547  22228689.2474   22228695.1394   22228689.3104
  -1015283.40948   -760688.04447  22494942.3164   22494946.4804   22494941.7264
  -4710240.03648  -3492018.62547  19855334.6314   19855338.3274   19855334.2934
 97  6 10  3 39 59.9970000  0  8G15G21G23G25G 3G31G29G 1
  -9211027.06748  -7153308.37347  21380174.1584   21380178.6574   21380173.3864
  -1774522.44548  -1378160.26547  20797451.2874   20797456.0444   20797450.9154
   2458361.75944   1913239.66443  23706882.6124   23706885.7474   23706882.1954
 -16358319.60848 -12724394.76247  22521372.2054   22521377.6444   22521372.1094
   4596545.04844     75260.58243  23226710.5844
   -797016.42948   -614842.35147  22230538.2104   22230542.8074   22230538.3534
  -1080947.72748   -811855.03847  22482446.5954   22482450.1804   22482446.2504
  -4717293.70948  -3497514.99147  19853992.4124   19853996.2534   19853992.0744
 97  6 10  3 40 14.9970000  0  8G15G21G23G25G 3G31G29G 1
  -9277014.67648  -7204727.29447  21367617.0654   21367620.6844   21367616.3744
  -1775797.15748  -1379153.54547  20797208.6054   20797212.9254   20797208.2164
   2471561.24344   1923524.95043  23709394.6914   23709396.6724   23709394.1734
 -16428092.22348 -12778763.00947  22508094.8884   22508099.4834   22508094.8214
   4622150.21044     95224.44143  23231583.7294
   -787201.24948   -607194.16747  22232406.0164   22232411.4784   22232406.0504
  -1146531.75048   -862959.44747  22469966.3604   22469970.1964   22469965.9734
  -4724240.07548  -3502927.74647  19852670.6614   19852674.4304   19852670.2584
 97  6 10  3 40 29.9970000  0  8G15G21G23G25G 3G31G29G 1
  -9342920.39448  -7256082.38847  21355075.4144   21355079.2164   21355074.9134
  -1777006.07648  -1380095.56947  20796978.3184   20796982.6614   20796978.0044
   2484783.31744   1933827.90243  23711910.9154   23711914.9534   23711910.2814
 -16497814.21548 -12833091.81447  22494827.2234   22494831.3824   22494827.2064
   4647783.06844    115209.91043  23236461.7774
   -777293.76148   -599474.08147  22234291.4714   22234297.3694   22234291.3704
  -1212038.25448   -914003.45347  22457500.8934   22457504.5754   22457500.5484
  -4731080.73448  -3508258.13547  19851368.9904   19851372.6074   19851368.5494
 97  6 10  3 40 44.9970000  0  8G15G21G23G25G 3G31G29G 1
  -9408746.98948  -7307375.83147  21342548.8434   21342553.4814   21342548.4884
  -1778156.03648  -1380991.64747  20796759.3874   20796763.7644   20796759.0864
   2498027.79144   1944148.25343  23714431.2964   23714434.3034   23714430.7184
 -16567487.58048 -12887382.72947  22481568.9034   22481573.0764   22481568.8524
   4673436.91744     12347.46743  23241343.2254
   -767295.49748   -591683.24747  22236194.1194   22236199.7644   22236194.1474
  -1277471.93048   -964990.72247  22445049.3794   22445053.5224   22445048.9474
  -4737817.70248  -3513507.71447  19850087.0264   19850090.5414   19850086.5794
 97  6 10  3 40 59.9970000  0  8G15G21G23G25G 3G31G29G 1
  -9474480.83148  -7358596.98947  21330040.1244   21330044.6004   21330039.7474
  -1779236.61848  -1381833.66347  20796553.7554   20796557.9284   20796553.4614
   2511308.79944   1954497.06343  23716958.5414   23716961.3334   23716957.9474
 -16637099.74748 -12941625.96747  22468322.3084   22468326.8824   22468322.1254
   4699122.36644     32362.10943  23246231.0324
   -757192.86448   -583811.07647  22238116.7534   22238123.2324   22238116.7274
  -1342818.35148  -1015909.98147  22432614.3844   22432618.4854   22432613.8994
  -4744436.30448  -3518665.06547  19848827.5794   19848831.2664   19848827.1124
 97  6 10  3 41 14.9970000  0  8G15G21G23G25G 3G31G29G 1
  -9540135.69648  -7409756.62747  21317546.5384   21317550.8224   21317546.0314
  -1780260.91648  -1382631.82247  20796358.9354   20796363.5324   20796358.5764
   2524608.41844   1964860.42143  23719489.2774   23719492.6204   23719488.6714
 -16706667.76248 -12995834.78447  22455084.0354   22455088.4534   22455083.7764
   4724823.80154     52422.70643  23251122.1974
   -747001.45648   -575869.74747  22240056.1214   22240061.5424   22240056.0574
  -1408091.90448  -1066772.46147  22420193.0424   22420196.9794   22420192.7754
  -4750949.41848  -3523740.21747  19847588.1514   19847591.7044   19847587.7084
 97  6 10  3 41 29.9970000  0  8G15G21G23G25G 3G31G29G 1
  -9605717.73448  -7460859.51047  21305066.8744   21305070.3514   21305066.2164
  -1781234.06748  -1383390.13347  20796173.8704   20796177.9894   20796173.4884
   2537919.94144   1975233.01343  23722022.2874   23722025.5214   23722021.7204
 -16776197.80748 -13050014.01947  22441852.8884   22441856.6754   22441852.6954
   4750532.26044     72491.08143  23256014.2884
   -736727.24748   -567863.88147  22242011.5454   22242015.8914   22242011.3104
  -1473299.94548  -1117583.90047  22407784.2964   22407788.4534   22407784.0534
  -4757360.34948  -3528735.74547  19846368.1614   19846371.6954   19846367.7554
 97  6 10  3 41 44.9970000  0  8G15G21G23G25G 3G31G29G 1
  -9671208.24148  -7511891.06347  21292604.6424   21292608.6204   21292603.7764
  -1782140.01448  -1384096.08247  20796001.5934   20796005.6494   20796001.1854
   2551261.91444   1985629.36043  23724561.0574   23724563.4994   23724560.4844
 -16845667.18448 -13104145.98347  22428633.2684   22428637.2804   22428633.1274
   4776265.44244     92578.73443  23260911.6964
   -726349.76348   -559777.54547  22243986.5174   22243991.4734   22243986.1214
  -1538424.45848  -1168330.25047  22395391.4134   22395395.6884   22395391.1234
  -4763648.40248  -3533635.52747  19845171.5624   19845175.1294   19845171.1734
 97  6 10  3 41 59.9970000  0  8G15G21G23G25G 3G31G29G 1
  -9736617.90748  -7562859.60047  21280157.4334   21280161.2804   21280156.6354
  -1782990.19548  -1384758.57147  20795840.0044   20795843.5724   20795839.5824
   2564626.23844   1996043.04343  23727104.0504   23727105.9164   23727103.4014
 -16915086.48748 -13158238.93447  22415423.1154   22415426.3194   22415423.1074
   4802013.15754    112677.69343  23265812.2114
   -715879.11448   -551618.61747  22245979.1584   22245984.9174   22245978.6634
  -1603479.81048  -1219022.71447  22383011.8294   22383016.6094   22383011.4684
  -4769821.83148  -3538445.99347  19843996.7594   19844000.2274   19843996.4034
 97  6 10  3 42 14.9970000  0  8G15G21G23G25G 3G31G29G 1
  -9801949.25348  -7613767.13347  21267725.0434   21267728.5274   21267724.3724
  -1783784.45348  -1385377.47547  20795689.1004   20795692.9094   20795688.5884
   2578011.77144   2006473.37743  23729650.7344   23729655.0614   23729650.3194
 -16984458.86048 -13212295.29847  22402221.9664   22402225.2754   22402221.9434
   4827772.08754      9017.49243  23270713.6764
   -705315.85548   -543387.53347  22247989.3044   22247993.7064   22247988.8564
  -1668469.99048  -1269664.38547  22370644.6124   22370647.8384   22370644.1484
  -4775881.42348  -3543167.75947  19842843.6824   19842847.1764   19842843.3054
 97  6 10  3 42 29.9970000  0  8G15G21G23G25G 3G31G29G 1
  -9867177.16848  -7664594.06747  21255312.4324   21255315.8554   21255311.8154
  -1784497.25348  -1385932.92147  20795553.6214   20795557.5344   20795553.0374
   2591447.60944   2016942.82343  23732207.0724   23732211.0974   23732206.8864
 -17053759.07248 -13266295.45947  22389034.6174   22389038.1184   22389034.5894
   4853566.96554     29117.29043  23275621.2274
   -694638.49148   -535067.52447  22250021.0964   22250026.3664   22250020.8394
  -1733371.09748  -1320236.66047  22358294.1684   22358297.9074   22358293.7684
  -4781801.42848  -3547780.75747  19841717.1884   19841720.6594   19841716.7864
 97  6 10  3 42 44.9970000  0  8G15G21G23G25G 3G31G29G 1
  -9932313.84848  -7715349.90347  21242917.2154   21242921.7624   21242916.6124
  -1785142.35948  -1386435.60847  20795430.9694   20795434.6964   20795430.3934
   2604921.26444   2027441.76743  23734770.9554   23734774.7204   23734770.7464
 -17122998.51748 -13320248.25547  22375858.8224   22375862.3634   22375858.7794
   4879385.36554     49280.90843  23280533.8194
   -683857.14848   -526666.47847  22252072.8824   22252077.3484   22252072.5274
  -1798196.23248  -1370749.72547  22345958.2604   22345961.8684   22345957.9164
  -4787594.70348  -3552295.00447  19840614.7724   19840618.4634   19840614.3564
 97  6 10  3 42 59.9970000  0  8G15G21G23G25G 3G31G29G 1
  -9997369.79948  -7766042.83647  21230537.5434   21230541.6824   21230536.8614
  -1785728.50648  -1386892.35147  20795319.5414   20795323.7324   20795318.9384
   2618422.01944   2037961.86243  23737340.1494   23737343.9484   23737339.7474
 -17192191.93348 -13374165.17847  22362691.7164   22362695.1994   22362691.7044
   4905216.09654     69468.18043  23285449.3704
   -672981.19248   -518191.72747  22254142.5174   22254146.5314   22254142.1454
  -1862956.50148  -1421212.23347  22333634.6194   22333638.9274   22333634.2004
  -4793275.63348  -3556721.70847  19839533.6944   19839537.6394   19839533.2914
 97  6 10  3 43 14.9970000  0  8G15G21G23G25G 3G31G29G 1
 -10062344.49548  -7816672.46747  21218173.4094   21218177.4474   21218172.6144
  -1786251.22348  -1387299.66647  20795220.1024   20795224.4854   20795219.5184
   2631950.33544   2048503.39943  23739914.6624   23739915.8124   23739914.2284
 -17261338.42148 -13428045.54547  22349533.5674   22349536.1424   22349533.5184
   4931059.71554     89665.50443  23290367.4894
   -662013.10848   -509645.18947  22256229.6804   22256233.8954   22256229.3074
  -1927650.59648  -1471623.20847  22321323.2524   22321329.2394   22321323.2304
  -4798847.82148  -3561063.67147  19838473.3244   19838477.2904   19838472.9364
 97  6 10  3 43 29.9970000  0  8G15G21G23G25G 3G31G29G 1
 -10127239.08848  -7867239.65447  21205824.4894   21205828.3644   21205823.5754
  -1786710.12048  -1387657.25347  20795132.8324   20795137.1144   20795132.3124
   2645507.42844   2059067.36443  23742494.6214   23742495.7564   23742494.2474
 -17330439.73148 -13481890.70747  22336384.0144   22336387.8014   22336383.9804
   4956916.72254    109873.25943  23295288.4494
   -650952.77548   -501026.77047  22258334.3944   22258338.0964   22258334.1474
  -1992280.22748  -1521983.92347  22309024.3174   22309029.1284   22309024.5934
  -4804314.96848  -3565323.78247  19837432.9174   19837436.9674   19837432.5344
 97  6 10  3 43 44.9970000  0  8G15G21G23G25G 3G31G29G 1
 -10192054.82148  -7917745.40847  21193490.2844   21193493.9204   21193489.5004
  -1787110.22948  -1387969.02747  20795056.7864   20795060.9704   20795056.2624
   2659094.49444   2069654.67243  23745080.0614   23745081.1524   23745079.7874
 -17399495.38448 -13535700.29947  22323243.1334   22323246.4884   22323243.1054
   4982783.47954      5743.77343  23300210.9624
   -639801.29448   -492337.33647  22260456.5394   22260459.5874   22260456.1824
  -2056845.69648  -1572294.63247  22296737.8064   22296744.4144   22296738.0854
  -4809679.64948  -3569504.05047  19836411.9964   19836415.8854   19836411.6104
 97  6 10  3 43 59.9970000  0  7G15G21G23G25G31G29G 1
 -10256790.52848  -7968188.81247  21181171.3344   21181175.7914   21181170.7304
  -1787452.24248  -1388235.52847  20794991.6884   20794996.0334   20794991.1694
   2672711.93644   2080265.67643  23747671.3944   23747673.3284   23747671.1584
 -17468504.44348 -13589473.57847  22310111.0934   22310114.4414   22310111.1184
   -628559.07048   -483577.17947  22262596.0804   22262600.1764   22262595.5044
  -2121345.07448  -1622553.87147  22284464.0604   22284470.1734   22284464.2394
  -4814940.92648  -3573603.74747  19835410.7654   19835414.6814   19835410.3824
 97  6 10  3 44 14.9970000  0  7G15G21G23G25G31G29G 1
 -10321442.25748  -8018566.77347  21168868.6424   21168873.4054   21168867.9774
  -1787731.38848  -1388453.04447  20794938.5524   20794943.3614   20794938.0384
   2686360.82644   2090901.12843  23750268.6784   23750270.4224   23750268.4864
 -17537463.86248 -13643208.16147  22296988.5814   22296991.3054   22296988.5184
   -617222.60848   -474743.57747  22264753.4084   22264756.8274   22264752.7464
  -2185775.90948  -1672759.69247  22272203.7194   22272208.6654   22272203.4994
  -4820097.84048  -3577622.11447  19834429.4324   19834433.2974   19834429.0024
 97  6 10  3 44 29.9970000  0  7G15G21G23G25G31G29G 1
 -10386007.84348  -8068877.61347  21156582.4334   21156587.0014   21156581.5834
  -1787947.88648  -1388621.73547  20794897.2714   20794902.5364   20794896.7524
   2700041.75944   2101561.59443  23752871.8794   23752874.7414   23752871.5834
 -17606370.17548 -13696901.36647  22283876.0884   22283878.9104   22283876.0114
   -605792.51748   -465837.03147  22266928.3264   22266932.7524   22266927.7064
  -2250134.39548  -1722909.14247  22259956.7984   22259962.3184   22259956.4494
  -4825152.67848  -3581560.94847  19833467.4504   19833471.3474   19833467.0484
 97  6 10  3 44 44.9970000  0  7G15G21G23G25G31G29G 1
 -10450490.10548  -8119123.51247  21144311.9364   21144316.4364   21144311.0454
  -1788105.38148  -1388744.45947  20794867.1704   20794872.5714   20794866.6704
   2713752.37044   2112245.18443  23755480.6974   23755482.8524   23755480.4624
 -17675227.71948 -13750556.56747  22270772.8434   22270775.5544   22270772.7984
   -594272.59548   -456860.48347  22269120.4324   22269125.0334   22269120.0314
  -2314422.97148  -1773004.10447  22247722.8404   22247728.0404   22247722.6924
  -4830110.39648  -3585424.10647  19832523.9444   19832527.9244   19832523.5944
 97  6 10  3 44 59.9970000  0  7G15G21G23G25G31G29G 1
 -10514884.86648  -8169301.24747  21132057.9474   21132062.9234   21132057.1264
  -1788197.85748  -1388816.51147  20794849.4024   20794854.4494   20794848.9284
   2727494.15944   2122953.05743  23758095.4114   23758098.0134   23758095.0954
 -17744035.29648 -13804172.83047  22257679.1294   22257682.0304   22257679.1254
   -582657.90648   -447810.09747  22271330.6954   22271334.5954   22271330.3424
  -2378637.54348  -1823041.40047  22235503.1314   22235509.1074   22235503.2114
  -4834967.45148  -3589208.81947  19831599.6284   19831603.4034   19831599.2994
 97  6 10  3 45 14.9970000  0  7G15G21G23G25G31G29G 1
 -10579190.70948  -8219409.68747  21119820.8824   21119825.3804   21119820.1224
  -1788223.86648  -1388836.76647  20794844.2434   20794849.4644   20794843.8134
   2741268.60044   2133686.34843  23760716.0434   23760719.8874   23760715.7964
 -17812791.92548 -13857749.38547  22244595.1504   22244598.4574   22244595.1674
   -570952.02248   -438688.64747  22273557.9034   22273559.8714   22273557.7694
  -2442777.86148  -1873020.85347  22223297.4354   22223302.8074   22223297.7094
  -4839721.07748  -3592912.94947  19830695.0444   19830698.9264   19830694.7024
 97  6 10  3 45 29.9970000  0  7G15G21G23G25G31G29G 1
 -10643412.25748  -8269452.44347  21107599.9154   21107605.0804   21107599.1184
  -1788190.35448  -1388810.65047  20794850.4204   20794855.1574   20794850.0064
   2755070.84644   2144441.36143  23763342.0164   23763348.9544   23763342.0394
 -17881501.47048 -13911289.26447  22231520.1834   22231523.1904   22231520.1474
   -559158.90248   -429499.22747  22275801.7944   22275806.7414   22275801.7374
  -2506849.10348  -1922946.48647  22211104.8614   22211111.7554   22211105.3624
  -4844372.09448  -3596537.11747  19829809.9994   19829813.7644   19829809.6554
 97  6 10  3 45 44.9970000  0  7G15G21G23G25G31G29G 1
 -10707521.97648  -8319408.05847  21095400.1444   21095405.1914   21095399.3854
  -1788074.19048  -1388720.13847  20794872.2874   20794877.7514   20794871.9704
   2768924.89244   2155236.75243  23765978.2764   23765982.0754   23765978.2694
 -17950134.68248 -13964769.65747  22218459.7014   22218462.8254   22218459.6724
   -547252.12248   -420221.23947  22278067.3604   22278073.0434   22278067.3984
  -2570825.64848  -1972798.32147  22198930.4804   22198936.4554   22198931.0984
  -4848891.43748  -3600058.68447  19828950.0334   19828953.6314   19828949.6724
 97  6 10  3 45 59.9970000  0  7G15G21G23G25G31G29G 1
 -10771547.49548  -8369298.07247  21083216.4784   21083221.2164   21083215.6824
  -1787904.52948  -1388587.92847  20794904.5034   20794910.0084   20794904.1814
   2782800.35244   2166048.78243  23768618.7764   23768622.5874   23768618.5634
 -18018717.15948 -14018210.52447  22205408.9184   22205412.1344   22205408.8514
   -535260.66548   -410877.25947  22280349.3364   22280353.7314   22280349.3894
  -2634737.63648  -2022599.86947  22186768.3884   22186774.5084   22186769.0384
  -4853306.61748  -3603499.09747  19828109.8984   19828113.4074   19828109.5284
 97  6 10  3 46 14.9970000  0  7G15G21G23G25G31G29G 1
 -10835489.46848  -8419122.98047  21071048.6874   21071053.1974   21071047.9774
  -1787681.80048  -1388414.37647  20794946.8664   20794952.8044   20794946.5544
   2796694.85944   2176875.65743  23771262.9194   23771267.3444   23771262.6714
 -18087250.64448 -14071613.20247  22192367.3304   22192370.3964   22192367.3524
   -523185.63448   -401468.15147  22282647.2694   22282651.7644   22282647.3734
  -2698588.13348  -2072353.49947  22174618.0494   22174623.5884   22174618.6804
  -4857620.93048  -3606860.90947  19827288.9784   19827292.5144   19827288.6064
 97  6 10  3 46 29.9970000  0  7G15G21G23G25G31G29G 1
 -10899335.99648  -8468873.51847  21058899.1604   21058903.8224   21058898.4054
  -1787394.40248  -1388190.43747  20795001.6264   20795006.9844   20795001.2724
   2810622.37944   2187728.24943  23773913.4954   23773917.7764   23773913.1774
 -18155723.21348 -14124968.41347  22179337.3824   22179340.0954   22179337.4444
   -511016.98248   -391986.09047  22284963.2004   22284966.4004   22284962.8574
  -2762363.13948  -2122048.29547  22162482.2044   22162487.9194   22162482.7824
  -4861824.86148  -3610136.70147  19826489.0684   19826492.5194   19826488.7094
 97  6 10  3 46 44.9970000  0  7G15G21G23G25G31G29G 1
 -10963085.70348  -8518548.60047  21046767.9564   21046772.8264   21046767.2624
  -1787041.74148  -1387915.64747  20795068.7384   20795073.1454   20795068.4014
   2824586.68144   2198609.53043  23776571.0854   23776573.8434   23776570.7004
 -18224133.69048 -14178275.24247  22166319.3444   22166322.5804   22166319.3174
   -498756.47848   -382432.45347  22287296.4334   22287301.0364   22287295.7614
  -2826060.71848  -2171682.76047  22150361.1774   22150366.9114   22150361.5504
  -4865915.06248  -3613323.87647  19825710.8264   19825714.3214   19825710.4464
 97  6 10  3 46 59.9970000  0  7G15G21G23G25G31G29G 1
 -11026743.09348  -8568151.75947  21034654.3634   21034658.8774   21034653.6804
  -1786628.00148  -1387593.26347  20795147.4934   20795151.7514   20795147.2044
   2838581.55544   2209514.56243  23779234.5484   23779236.2844   23779234.0634
 -18292485.45548 -14231536.33047  22153312.3814   22153315.9004   22153312.3834
   -486410.24048   -372812.02447  22289645.8324   22289648.2304   22289645.1434
  -2889688.19148  -2221262.59547  22138253.5264   22138259.1574   22138253.7444
  -4869895.78948  -3616425.74747  19824953.4094   19824956.6504   19824952.9964
 97  6 10  3 47 14.9970000  0  7G15G21G23G25G31G29G 1
 -11090315.98448  -8617689.05847  21022556.8414   21022561.1364   21022556.1474
  -1786162.84448  -1387230.80847  20795236.1214   20795240.1964   20795235.8294
   2852597.24244   2220435.84243  23781901.9334   23781905.2994   23781901.4594
 -18360784.93348 -14284756.67347  22140315.4134   22140319.4504   22140315.4134
   -473987.21848   -363131.75847  22292009.8054   22292014.3304   22292009.2054
  -2953254.44448  -2270794.69447  22126157.5254   22126162.7304   22126157.5524
  -4873776.05448  -3619449.34147  19824215.0584   19824218.4904   19824214.6304
 97  6 10  3 47 29.9970000  0  7G15G21G23G25G31G29G 1
 -11153786.41248  -8667146.52047  21010478.8214   21010483.0014   21010478.1424
  -1785627.89748  -1386813.97347  20795338.0214   20795342.4564   20795337.7544
   2866650.80744   2231386.68843  23784576.5404   23784579.5064   23784576.0694
 -18429013.75048 -14337921.94947  22127331.8484   22127335.4394   22127331.9084
   -461468.66648   -353377.06647  22294391.8654   22294397.1544   22294391.5294
  -3016741.40648  -2320265.06647  22114076.5384   22114081.6154   22114076.3944
  -4877541.68648  -3622383.60247  19823498.4924   19823502.1374   19823498.0704
 97  6 10  3 47 44.9970000  0  7G15G21G23G25G31G29G 1
 -11217171.05348  -8716537.13747  20998417.1654   20998421.2454   20998416.4534
  -1785038.59348  -1386354.79247  20795450.3014   20795454.9014   20795450.0134
   2880724.23444   2242352.94843  23787255.0864   23787257.8704   23787254.5894
 -18497190.23348 -14391046.46347  22114358.2594   22114361.2614   22114358.3304
   -448870.16548   -343560.05547  22296789.4054   22296794.3854   22296789.2224
  -3080166.38448  -2369687.11947  22102007.3734   22102012.1654   22102007.1044
  -4881212.87048  -3625244.26147  19822799.8974   19822803.3824   19822799.4824
 97  6 10  3 47 59.9970000  0  7G15G21G23G25G31G29G 1
 -11280473.32348  -8765863.57047  20986371.1464   20986374.9394   20986370.4244
  -1784396.79348  -1385854.69247  20795572.5904   20795576.8994   20795572.2554
   2894814.34444   2253332.19543  23789936.7894   23789940.3824   23789936.2944
 -18565319.74948 -14444134.38147  22101393.6064   22101397.6744   22101393.6544
   -436195.84948   -333683.96747  22299201.3784   22299205.0754   22299201.0434
  -3143530.99448  -2419062.13147  22089949.4504   22089954.0524   22089949.2314
  -4884796.58548  -3628036.77447  19822117.9424   19822121.5204   19822117.5154
 97  6 10  3 48 14.9970000  0  7G15G21G23G25G31G29G 1
 -11343685.09948  -8815119.48047  20974342.2834   20974346.5094   20974341.5924
  -1783691.25448  -1385304.93747  20795706.9434   20795710.4114   20795706.5934
   2908931.65344   2264332.72943  23792623.4954   23792627.2844   23792622.9494
 -18633396.90548 -14497181.49047  22088438.8934   22088442.9924   22088438.9834
   -423436.80848   -323741.87047  22301629.3524   22301633.8234   22301629.0424
  -3206822.86548  -2468380.45347  22077905.4294   22077908.9984   22077905.2344
  -4888285.66348  -3630755.54047  19821453.9714   19821457.7094   19821453.5524
 97  6 10  3 48 29.9970000  0  7G15G21G23G25G31G29G 1
 -11406798.62448  -8864298.83947  20962332.0774   20962336.3244   20962331.4214
  -1782911.73748  -1384697.52547  20795855.3644   20795858.9764   20795855.0174
   2923083.71344   2275360.31843  23795316.7834   23795319.9184   23795316.3044
 -18701415.00748 -14550182.59347  22075495.4974   22075499.7274   22075495.5664
   -410586.67548   -313728.79347  22304074.6764   22304079.9674   22304074.5644
  -3270030.54848  -2517633.16647  22065877.4954   22065881.0964   22065877.2334
  -4891673.10748  -3633395.11047  19820809.3204   19820813.2624   19820808.9134
 97  6 10  3 48 44.9970000  0  7G15G21G23G25G31G29G 1
 -11469811.48648  -8913399.76147  20950341.0804   20950345.5624   20950340.4504
  -1782054.21648  -1384029.33647  20796018.5704   20796022.5864   20796018.1864
   2937272.32744   2286416.37643  23798017.0154   23798021.5764   23798016.5384
 -18769371.29648 -14603135.51847  22062563.8284   22062568.2274   22062563.9454
   -397642.88248   -303642.70047  22306537.7574   22306542.9014   22306538.1054
  -3333151.29948  -2566818.15447  22053866.1194   22053869.9254   22053865.8134
  -4894953.27848  -3635951.09147  19820185.0924   19820189.1314   19820184.6614
 97  6 10  3 48 59.9970000  0  7G15G21G23G25G31G29G 1
 -11532748.57648  -8962441.63647  20938364.5784   20938368.6164   20938363.9164
  -1781141.33748  -1383318.00647  20796192.2864   20796196.4734   20796191.8994
   2951468.83144   2297478.61143  23800718.6734   23800721.0894   23800718.1354
 -18837291.21748 -14656060.11147  22049639.1234   22049643.1904   22049639.1984
   -384628.81648   -293501.86647  22309014.3804   22309016.8124   22309014.8744
  -3396211.86648  -2615956.23747  22041866.0624   22041870.3854   22041865.7994
  -4898151.01048  -3638442.82547  19819576.5074   19819580.6324   19819576.1054
 97  6 10  3 49 14.9970000  0  7G15G21G23G25G31G29G 1
 -11595583.61348  -9011403.99647  20926407.4604   20926412.1314   20926406.8224
  -1780144.41248  -1382541.18447  20796381.9984   20796386.3414   20796381.5584
   2965698.54144   2308566.70443  23803426.5644   23803430.3174   23803426.0294
 -18905150.69748 -14708937.58947  22036725.9164   22036730.4114   22036725.9244
   -371516.84948   -283284.77947  22311509.9004   22311512.3194   22311510.3114
  -3459184.63848  -2665025.92347  22029882.6634   22029886.7464   22029882.4804
  -4901240.15248  -3640849.94047  19818988.5994   19818992.8854   19818988.2174
 97  6 10  3 49 29.9970000  0  7G15G21G23G25G31G29G 1
 -11658319.19448  -9060288.85947  20914469.1964   20914474.0954   20914468.6464
  -1779065.33948  -1381700.35647  20796587.2134   20796591.9214   20796586.7694
   2979959.18644   2319678.90443  23806140.3444   23806141.9314   23806139.7014
 -18972951.66948 -14761769.48347  22023823.8004   22023828.7914   22023823.8004
   -358310.07348   -272993.78047  22314023.1534   22314027.3094   22314023.1104
  -3522070.12148  -2714027.57447  22017915.7584   22017919.7664   22017915.7744
  -4904221.67248  -3643173.20347  19818421.1994   19818425.5894   19818420.8024
 97  6 10  3 49 44.9970000  0  7G15G21G23G25G31G29G 1
 -11720960.22548  -9109100.05147  20902548.9984   20902553.5944   20902548.4174
  -1777909.52148  -1380799.71147  20796806.9974   20796812.3924   20796806.6044
   2994247.34944   2330812.54743  23808859.2074   23808862.4834   23808858.5534
 -19040696.72748 -14814557.80947  22010932.3184   22010936.7684   22010932.3314
   -345013.89348   -262633.09647  22316553.2724   22316559.8984   22316553.1234
  -3584872.91448  -2762964.80947  22005964.5854   22005968.6394   22005964.7834
  -4907097.21748  -3645413.88647  19817873.9624   19817878.4094   19817873.5544
 97  6 10  3 49 59.9970000  0  7G15G21G23G25G31G29G 1
 -11783522.40948  -9157849.78847  20890643.8094   20890648.2454   20890643.2214
  -1776695.75748  -1379853.91747  20797037.8894   20797043.3544   20797037.4594
   3008547.62744   2341955.58443  23811580.5254   23811583.4364   23811579.9254
 -19108396.42548 -14867310.78247  21998049.4504   21998053.6804   21998049.5134
   -331645.69948   -252216.31347  22319097.4454   22319100.6864   22319097.2254
  -3647607.62448  -2811848.97847  21994026.6534   21994031.0414   21994026.7544
  -4909878.91248  -3647581.44047  19817344.5954   19817349.1704   19817344.2304
 97  6 10  3 50 14.9970000  0  7G15G21G23G25G31G29G 1
 -11845987.30648  -9206523.72447  20878757.1024   20878761.6124   20878756.5344
  -1775407.51348  -1378850.09447  20797282.9204   20797287.8224   20797282.4394
   3022878.44144   2353122.53443  23814307.6594   23814308.7334   23814306.9074
 -19176028.79648 -14920011.30547  21985179.4344   21985183.8414   21985179.4994
   -318187.69548   -241729.55647  22321658.7024   22321662.6834   22321658.3174
  -3710258.17248  -2860667.56647  21982104.5974   21982108.1964   21982104.7194
  -4912546.60748  -3649660.15047  19816836.9854   19816841.4214   19816836.6144
 97  6 10  3 50 29.9970000  0  7G15G21G23G25G31G29G 1
 -11908370.03348  -9255133.63347  20866886.0314   20866890.1784   20866885.4924
  -1774061.91148  -1377801.57147  20797538.7544   20797544.4094   20797538.3264
   3037222.64944   2364299.78143  23817037.1384   23817040.0534   23817034.7174
 -19243604.67648 -14972667.82047  21972320.1694   21972324.5954   21972320.2224
   -304659.06748   -231187.77247  22324233.5144   22324237.6754   22324233.0254
  -3772843.70848  -2909435.50347  21970194.9054   21970198.7754   21970195.0714
  -4915113.66548  -3651660.44447  19816348.5614   19816352.7134   19816348.1774
 97  6 10  3 50 44.9970000  0  7G15G21G23G25G31G29G 1
 -11970639.48048  -9303655.27847  20855036.5814   20855040.2634   20855036.0154
  -1772629.83348  -1376685.66347  20797811.1144   20797817.6094   20797810.7674
   3051609.89944   2375510.59743  23819774.8194   23819778.9104   23819773.0884
 -19311091.41448 -15025254.87347  21959477.9044   21959482.2924   21959477.9514
   -291030.41648   -220568.05547  22326827.1244   22326829.7564   22326826.1474
  -3835339.47448  -2958133.47947  21958302.3074   21958306.5074   21958302.4684
  -4917548.41048  -3653557.64447  19815885.3134   19815889.3574   19815884.9144
 97  6 10  3 50 59.9970000  0  7G15G21G23G25G31G29G 1
 -12032813.92648  -9352102.89347  20843205.1554   20843209.5594   20843204.5734
  -1771131.53148  -1375518.16747  20798096.1954   20798102.2824   20798095.8444
   3066020.25444   2386739.42443  23822516.5394   23822521.1704   23822513.8294
 -19378507.97848 -15077787.22947  21946649.0104   21946653.4864   21946648.9834
   -277320.67148   -209885.13747  22329435.9604   22329436.4864   22329434.7294
  -3897768.59948  -3006779.53747  21946422.2344   21946427.1614   21946422.5234
  -4919869.99848  -3655366.67047  19815443.5864   19815447.7244   19815443.1814
 97  6 10  3 51 14.9970000  0  7G15G21G23G25G31G29G 1
 -12094902.48748  -9400483.57747  20831390.0404   20831393.8394   20831389.4344
  -1769579.74948  -1374308.97847  20798391.5514   20798397.8304   20798391.1504
   3080445.39344   2397979.76543  23825260.8594   23825265.2644   23825257.7504
 -19445862.74648 -15130271.43547  21933831.8774   21933836.1824   21933831.8324
   -263542.15148   -199148.61447  22332058.0124   22332061.1634   22332056.4994
  -3960140.90548  -3055381.32047  21934553.0954   21934557.5404   21934553.4534
  -4922090.59748  -3657097.00347  19815021.0524   19815024.9844   19815020.6614
 97  6 10  3 51 29.9970000  0  7G15G21G23G25G31G29G 1
 -12156891.65148  -9448786.82147  20819593.8944   20819597.9534   20819593.2184
  -1767963.63348  -1373049.67247  20798699.1174   20798705.5024   20798698.6614
   3094900.17944   2409243.33143  23828011.2174   23828016.6354   23828008.6914
 -19513139.93148 -15182695.19747  21921029.4194   21921033.9014   21921029.3924
   -249682.64848   -188349.02847  22334695.1914   22334700.2964   22334694.1484
  -4022443.83848  -3103929.04847  21922697.1464   21922702.9064   21922697.5814
  -4924197.55648  -3658738.79447  19814620.1354   19814623.7814   19814619.7334
 97  6 10  3 51 44.9970000  0  7G15G21G23G25G31G29G 1
 -12218780.89048  -9497012.19847  20807816.6784   20807820.6044   20807816.0704
  -1766285.92548  -1371742.37047  20799018.2784   20799024.7274   20799017.9444
   3109385.37644   2420530.51543  23830767.4264   23830774.5324   23830765.4064
 -19580338.70048 -15235057.83447  21908241.8644   21908245.7764   21908241.8504
   -235740.48748   -177485.03047  22337347.8364   22337353.0304   22337347.3744
  -4084678.73348  -3152423.75047  21910854.2184   21910858.8844   21910854.6974
  -4926193.80948  -3660294.31047  19814240.2764   19814244.0154   19814239.8274
